Time,TemperatureF,DewpointF,PressureIn,WindDirection,WindDirectionDegrees,WindSpeedMPH,WindSpeedGustMPH,Humidity,HourlyPrecipIn,Conditions,Clouds,dailyrainin,SoftwareType,DateUTC
2013-02-13 00:00:00,65.8,40.1,29.59,West,270,0.0,0.6,40,0.00,,,0.00,WUHU216HW,2013-02-13 05:00:00,
2013-02-13 00:01:00,65.8,40.1,29.59,West,270,0.0,0.6,40,0.00,,,0.00,WUHU216HW,2013-02-13 05:01:00,
2013-02-13 00:02:00,65.8,40.1,29.59,West,270,0.0,0.0,42,0.00,,,0.00,WUHU216HW,2013-02-13 05:02:00,
2013-02-13 00:03:00,65.8,40.1,29.59,West,270,0.0,0.0,42,0.00,,,0.00,WUHU216HW,2013-02-13 05:03:00,
2013-02-13 00:04:00,65.8,40.1,29.59,West,270,0.0,0.0,42,0.00,,,0.00,WUHU216HW,2013-02-13 05:04:00,
2013-02-13 00:05:00,66.0,41.0,29.59,West,270,0.0,0.0,40,0.00,,,0.00,WUHU216HW,2013-02-13 05:05:00,
2013-02-13 00:06:00,66.0,41.0,29.59,West,270,0.0,0.0,40,0.00,,,0.00,WUHU216HW,2013-02-13 05:06:00,
2013-02-13 00:07:00,66.0,41.0,29.59,SW,225,0.0,0.0,39,0.00,,,0.00,WUHU216HW,2013-02-13 05:07:00,
2013-02-13 00:08:00,66.0,41.0,29.59,SW,225,0.0,0.0,39,0.00,,,0.00,WUHU216HW,2013-02-13 05:08:00,
2013-02-13 00:09:00,65.8,40.1,29.59,WSW,248,0.0,0.0,39,0.00,,,0.00,WUHU216HW,2013-02-13 05:09:00,
2013-02-13 00:10:00,65.8,40.1,29.59,WSW,248,0.0,0.0,39,0.00,,,0.00,WUHU216HW,2013-02-13 05:10:00,
2013-02-13 00:11:00,65.6,39.2,29.59,WNW,293,0.0,0.0,38,0.00,,,0.00,WUHU216HW,2013-02-13 05:11:00,
2013-02-13 00:12:00,65.6,39.2,29.59,WNW,293,0.0,0.0,38,0.00,,,0.00,WUHU216HW,2013-02-13 05:12:00,
2013-02-13 00:13:00,65.4,39.0,29.59,SSW,203,0.0,0.0,38,0.00,,,0.00,WUHU216HW,2013-02-13 05:13:00,
2013-02-13 00:15:00,50.1,38.4,29.65,WNW,293,0.0,0.0,64,0.00,,,0.00,WUHU216HW,2013-02-13 05:15:00,
2013-02-13 00:16:00,64.9,38.6,29.59,WNW,293,0.0,0.0,38,0.00,,,0.00,WUHU216HW,2013-02-13 05:16:00,
2013-02-13 00:17:00,64.9,38.6,29.59,WNW,293,0.0,0.0,39,0.00,,,0.00,WUHU216HW,2013-02-13 05:17:00,
2013-02-13 00:18:00,64.9,38.6,29.59,WNW,293,0.0,0.0,39,0.00,,,0.00,WUHU216HW,2013-02-13 05:18:00,
2013-02-13 00:19:00,64.9,38.6,29.59,WNW,293,0.0,0.0,39,0.00,,,0.00,WUHU216HW,2013-02-13 05:19:00,
2013-02-13 00:20:00,64.9,38.6,29.59,WNW,293,0.0,0.0,41,0.00,,,0.00,WUHU216HW,2013-02-13 05:20:00,
2013-02-13 00:21:00,50.1,38.4,29.65,WNW,293,0.0,0.0,65,0.00,,,0.00,WUHU216HW,2013-02-13 05:21:00,
2013-02-13 00:22:00,64.9,38.6,29.59,WNW,293,0.0,0.0,41,0.00,,,0.00,WUHU216HW,2013-02-13 05:22:00,
2013-02-13 00:23:00,64.9,38.6,29.59,WNW,293,0.0,0.0,41,0.00,,,0.00,WUHU216HW,2013-02-13 05:23:00,
2013-02-13 00:24:00,64.9,38.6,29.59,WNW,293,0.0,0.0,40,0.00,,,0.00,WUHU216HW,2013-02-13 05:24:00,
2013-02-13 00:25:00,64.9,38.6,29.59,WNW,293,0.0,0.0,40,0.00,,,0.00,WUHU216HW,2013-02-13 05:25:00,
2013-02-13 00:26:00,50.0,39.0,29.65,WNW,293,0.0,0.0,66,0.00,,,0.00,WUHU216HW,2013-02-13 05:26:00,
2013-02-13 00:27:00,64.9,38.6,29.59,WNW,293,0.0,0.0,41,0.00,,,0.00,WUHU216HW,2013-02-13 05:27:00,
2013-02-13 00:28:00,65.1,41.3,29.59,WNW,293,0.0,0.0,42,0.00,,,0.00,WUHU216HW,2013-02-13 05:28:00,
2013-02-13 00:29:00,65.1,41.3,29.60,WNW,293,0.0,0.0,42,0.00,,,0.00,WUHU216HW,2013-02-13 05:29:00,
2013-02-13 00:30:00,65.4,42.2,29.60,WNW,293,0.0,0.0,43,0.00,,,0.00,WUHU216HW,2013-02-13 05:30:00,
2013-02-13 00:31:00,49.8,38.8,29.65,West,270,0.0,0.0,66,0.00,,,0.00,WUHU216HW,2013-02-13 05:31:00,
2013-02-13 00:32:00,65.6,42.4,29.60,West,270,0.0,0.0,43,0.00,,,0.00,WUHU216HW,2013-02-13 05:32:00,
2013-02-13 00:33:00,65.6,42.4,29.60,West,270,0.0,0.0,43,0.00,,,0.00,WUHU216HW,2013-02-13 05:33:00,
2013-02-13 00:34:00,65.6,42.4,29.60,West,270,0.0,0.0,43,0.00,,,0.00,WUHU216HW,2013-02-13 05:34:00,
2013-02-13 00:35:00,65.4,39.8,29.60,West,270,0.0,0.0,39,0.00,,,0.00,WUHU216HW,2013-02-13 05:35:00,
2013-02-13 00:36:00,65.4,39.8,29.60,West,270,0.0,0.0,39,0.00,,,0.00,WUHU216HW,2013-02-13 05:36:00,
2013-02-13 00:37:00,49.6,39.4,29.64,West,270,0.0,0.0,68,0.00,,,0.00,WUHU216HW,2013-02-13 05:37:00,
2013-02-13 00:38:00,65.3,38.2,29.60,WSW,248,0.0,0.0,37,0.00,,,0.00,WUHU216HW,2013-02-13 05:38:00,
2013-02-13 00:39:00,64.9,37.1,29.60,WSW,248,0.0,0.0,36,0.00,,,0.00,WUHU216HW,2013-02-13 05:39:00,
2013-02-13 00:40:00,64.9,37.1,29.60,WSW,248,0.0,0.0,36,0.00,,,0.00,WUHU216HW,2013-02-13 05:40:00,
2013-02-13 00:41:00,64.7,37.7,29.60,WSW,248,0.0,0.0,37,0.00,,,0.00,WUHU216HW,2013-02-13 05:41:00,
2013-02-13 00:42:00,49.6,39.4,29.64,West,270,0.0,0.0,66,0.00,,,0.00,WUHU216HW,2013-02-13 05:42:00,
2013-02-13 00:43:00,64.5,38.2,29.60,NE,45,0.0,0.0,38,0.00,,,0.00,WUHU216HW,2013-02-13 05:43:00,
2013-02-13 00:44:00,64.5,38.2,29.60,NE,45,0.0,0.0,38,0.00,,,0.00,WUHU216HW,2013-02-13 05:44:00,
2013-02-13 00:45:00,64.2,37.9,29.60,WSW,248,0.0,0.0,38,0.00,,,0.00,WUHU216HW,2013-02-13 05:45:00,
2013-02-13 00:46:00,64.2,37.9,29.60,WSW,248,0.0,0.0,38,0.00,,,0.00,WUHU216HW,2013-02-13 05:46:00,
2013-02-13 00:47:00,49.6,39.4,29.63,SSW,203,0.0,0.0,64,0.00,,,0.00,WUHU216HW,2013-02-13 05:47:00,
2013-02-13 00:48:00,64.0,37.0,29.60,WSW,248,0.0,0.0,37,0.00,,,0.00,WUHU216HW,2013-02-13 05:48:00,
2013-02-13 00:49:00,64.0,37.0,29.60,WSW,248,0.0,0.0,37,0.00,,,0.00,WUHU216HW,2013-02-13 05:49:00,
2013-02-13 00:50:00,63.8,38.3,29.60,WSW,248,0.0,0.0,39,0.00,,,0.00,WUHU216HW,2013-02-13 05:50:00,
2013-02-13 00:51:00,63.8,38.3,29.60,WSW,248,0.0,0.0,39,0.00,,,0.00,WUHU216HW,2013-02-13 05:51:00,
2013-02-13 00:52:00,49.6,39.4,29.63,SSW,203,0.0,0.0,64,0.00,,,0.00,WUHU216HW,2013-02-13 05:52:00,
2013-02-13 00:53:00,63.6,36.7,29.60,WSW,248,0.0,0.0,37,0.00,,,0.00,WUHU216HW,2013-02-13 05:53:00,
2013-02-13 00:54:00,63.3,36.4,29.60,WSW,248,0.0,0.0,37,0.00,,,0.00,WUHU216HW,2013-02-13 05:54:00,
2013-02-13 00:55:00,63.3,36.4,29.60,WSW,248,0.0,0.0,37,0.00,,,0.00,WUHU216HW,2013-02-13 05:55:00,
2013-02-13 00:56:00,63.3,36.4,29.60,West,270,0.0,0.0,37,0.00,,,0.00,WUHU216HW,2013-02-13 05:56:00,
2013-02-13 00:57:00,49.6,39.4,29.62,SSW,203,0.0,0.0,63,0.00,,,0.00,WUHU216HW,2013-02-13 05:57:00,
2013-02-13 00:58:00,63.1,36.2,29.60,West,270,0.0,0.0,37,0.00,,,0.00,WUHU216HW,2013-02-13 05:58:00,
2013-02-13 00:59:00,63.1,36.2,29.60,West,270,0.0,0.0,37,0.00,,,0.00,WUHU216HW,2013-02-13 05:59:00,
2013-02-13 01:00:00,63.1,36.2,29.60,West,270,0.0,0.0,37,0.00,,,0.00,WUHU216HW,2013-02-13 06:00:00,
2013-02-13 01:01:00,63.1,36.2,29.61,SW,225,1.3,1.3,37,0.00,,,0.00,WUHU216HW,2013-02-13 06:01:00,
2013-02-13 01:02:00,63.1,36.2,29.61,SW,225,1.3,1.3,37,0.00,,,0.00,WUHU216HW,2013-02-13 06:02:00,
2013-02-13 01:03:00,49.6,39.4,29.61,SSE,158,0.0,0.0,61,0.00,,,0.00,WUHU216HW,2013-02-13 06:03:00,
2013-02-13 01:04:00,62.9,35.3,29.60,West,270,0.0,1.3,36,0.00,,,0.00,WUHU216HW,2013-02-13 06:04:00,
2013-02-13 01:05:00,62.7,35.2,29.60,West,270,0.0,1.3,36,0.00,,,0.00,WUHU216HW,2013-02-13 06:05:00,
2013-02-13 01:06:00,62.7,35.2,29.61,West,270,0.0,1.3,36,0.00,,,0.00,WUHU216HW,2013-02-13 06:06:00,
2013-02-13 01:07:00,62.4,34.9,29.61,West,270,0.0,1.3,36,0.00,,,0.00,WUHU216HW,2013-02-13 06:07:00,
2013-02-13 01:08:00,49.6,39.4,29.61,SSE,158,0.0,0.0,62,0.00,,,0.00,WUHU216HW,2013-02-13 06:08:00,
2013-02-13 01:09:00,62.4,34.9,29.61,West,270,0.0,1.3,37,0.00,,,0.00,WUHU216HW,2013-02-13 06:09:00,
2013-02-13 01:10:00,62.4,34.9,29.61,West,270,0.0,1.3,37,0.00,,,0.00,WUHU216HW,2013-02-13 06:10:00,
2013-02-13 01:11:00,62.2,35.4,29.61,West,270,0.0,1.3,37,0.00,,,0.00,WUHU216HW,2013-02-13 06:11:00,
2013-02-13 01:12:00,62.2,35.4,29.61,West,270,0.0,0.0,37,0.00,,,0.00,WUHU216HW,2013-02-13 06:12:00,
2013-02-13 01:13:00,49.6,39.4,29.62,South,180,0.0,0.0,62,0.00,,,0.00,WUHU216HW,2013-02-13 06:13:00,
2013-02-13 01:14:00,62.2,35.4,29.61,WNW,293,0.0,0.0,36,0.00,,,0.00,WUHU216HW,2013-02-13 06:14:00,
2013-02-13 01:15:00,62.2,35.4,29.61,WNW,293,0.0,0.0,36,0.00,,,0.00,WUHU216HW,2013-02-13 06:15:00,
2013-02-13 01:16:00,62.0,35.2,29.61,WNW,293,0.0,0.0,37,0.00,,,0.00,WUHU216HW,2013-02-13 06:16:00,
2013-02-13 01:17:00,62.0,35.2,29.61,WNW,293,0.0,0.0,37,0.00,,,0.00,WUHU216HW,2013-02-13 06:17:00,
2013-02-13 01:18:00,49.6,39.4,29.61,South,180,0.0,0.0,63,0.00,,,0.00,WUHU216HW,2013-02-13 06:18:00,
2013-02-13 01:19:00,62.2,36.1,29.61,WNW,293,0.0,0.0,38,0.00,,,0.00,WUHU216HW,2013-02-13 06:19:00,
2013-02-13 01:20:00,61.8,35.1,29.61,WNW,293,0.0,0.0,37,0.00,,,0.00,WUHU216HW,2013-02-13 06:20:00,
2013-02-13 01:22:00,61.7,34.9,29.61,WSW,248,0.0,0.0,37,0.00,,,0.00,WUHU216HW,2013-02-13 06:22:00,
2013-02-13 01:23:00,49.6,39.4,29.61,South,180,0.0,0.0,66,0.00,,,0.00,WUHU216HW,2013-02-13 06:23:00,
2013-02-13 01:24:00,61.7,34.9,29.61,WSW,248,0.0,0.0,38,0.00,,,0.00,WUHU216HW,2013-02-13 06:24:00,
2013-02-13 01:25:00,61.7,34.9,29.61,WSW,248,0.0,0.0,38,0.00,,,0.00,WUHU216HW,2013-02-13 06:25:00,
2013-02-13 01:27:00,61.5,34.8,29.61,WSW,248,0.0,0.0,37,0.00,,,0.00,WUHU216HW,2013-02-13 06:27:00,
2013-02-13 01:28:00,49.4,39.3,29.61,South,180,0.0,0.0,68,0.00,,,0.00,WUHU216HW,2013-02-13 06:28:00,
2013-02-13 01:29:00,61.3,34.6,29.61,West,270,0.0,0.0,37,0.00,,,0.00,WUHU216HW,2013-02-13 06:29:00,
2013-02-13 01:31:00,61.1,34.4,29.61,WSW,248,1.1,1.1,37,0.00,,,0.00,WUHU216HW,2013-02-13 06:31:00,
2013-02-13 01:32:00,60.9,34.3,29.61,West,270,0.0,1.1,37,0.00,,,0.00,WUHU216HW,2013-02-13 06:32:00,
2013-02-13 01:33:00,60.9,34.3,29.61,West,270,0.0,1.1,37,0.00,,,0.00,WUHU216HW,2013-02-13 06:33:00,
2013-02-13 01:34:00,49.1,39.7,29.60,South,180,0.0,0.0,70,0.02,,,0.02,WUHU216HW,2013-02-13 06:34:00,
2013-02-13 01:35:00,60.8,34.1,29.61,West,270,4.0,4.0,37,0.00,,,0.00,WUHU216HW,2013-02-13 06:35:00,
2013-02-13 01:36:00,60.8,34.1,29.61,West,270,4.0,4.0,37,0.00,,,0.00,WUHU216HW,2013-02-13 06:36:00,
2013-02-13 01:37:00,60.6,34.0,29.61,West,270,4.6,4.6,37,0.00,,,0.00,WUHU216HW,2013-02-13 06:37:00,
2013-02-13 01:39:00,49.1,39.7,29.61,South,180,0.0,0.0,71,0.02,,,0.02,WUHU216HW,2013-02-13 06:39:00,
2013-02-13 01:40:00,60.4,33.1,29.61,WSW,248,0.0,4.6,36,0.00,,,0.00,WUHU216HW,2013-02-13 06:40:00,
2013-02-13 01:41:00,60.4,33.1,29.61,West,270,0.0,4.6,36,0.00,,,0.00,WUHU216HW,2013-02-13 06:41:00,
2013-02-13 01:42:00,60.4,33.1,29.62,West,270,0.0,4.6,36,0.00,,,0.00,WUHU216HW,2013-02-13 06:42:00,
2013-02-13 01:43:00,60.0,32.8,29.61,West,270,2.2,4.6,36,0.00,,,0.00,WUHU216HW,2013-02-13 06:43:00,
2013-02-13 01:44:00,48.9,39.9,29.61,South,180,0.0,0.0,72,0.02,,,0.02,WUHU216HW,2013-02-13 06:44:00,
2013-02-13 01:45:00,60.0,32.8,29.62,West,270,2.2,4.6,36,0.00,,,0.00,WUHU216HW,2013-02-13 06:45:00,
2013-02-13 01:46:00,60.0,32.8,29.61,West,270,0.0,4.6,36,0.00,,,0.00,WUHU216HW,2013-02-13 06:46:00,
2013-02-13 01:47:00,60.0,32.8,29.61,West,270,0.0,4.6,36,0.00,,,0.00,WUHU216HW,2013-02-13 06:47:00,
2013-02-13 01:48:00,59.7,32.5,29.62,West,270,0.0,4.6,36,0.00,,,0.00,WUHU216HW,2013-02-13 06:48:00,
2013-02-13 01:49:00,48.7,40.4,29.61,South,180,0.0,0.0,73,0.02,,,0.02,WUHU216HW,2013-02-13 06:49:00,
2013-02-13 01:50:00,59.7,32.5,29.62,West,270,0.0,2.2,37,0.00,,,0.00,WUHU216HW,2013-02-13 06:50:00,
2013-02-13 01:51:00,59.7,32.5,29.62,West,270,0.0,2.2,37,0.00,,,0.00,WUHU216HW,2013-02-13 06:51:00,
2013-02-13 01:52:00,59.5,33.0,29.62,West,270,0.0,2.2,37,0.00,,,0.00,WUHU216HW,2013-02-13 06:52:00,
2013-02-13 01:53:00,59.5,33.0,29.62,West,270,0.0,2.2,37,0.00,,,0.00,WUHU216HW,2013-02-13 06:53:00,
2013-02-13 01:54:00,48.5,40.2,29.61,South,180,0.0,0.0,73,0.02,,,0.02,WUHU216HW,2013-02-13 06:54:00,
2013-02-13 01:55:00,59.3,32.9,29.62,WNW,293,0.0,2.2,37,0.00,,,0.00,WUHU216HW,2013-02-13 06:55:00,
2013-02-13 01:56:00,59.0,32.5,29.62,WNW,293,0.0,0.0,37,0.00,,,0.00,WUHU216HW,2013-02-13 06:56:00,
2013-02-13 01:57:00,59.0,32.5,29.62,WNW,293,0.0,0.0,37,0.00,,,0.00,WUHU216HW,2013-02-13 06:57:00,
2013-02-13 01:58:00,59.0,32.5,29.62,WNW,293,0.0,0.0,37,0.00,,,0.00,WUHU216HW,2013-02-13 06:58:00,
2013-02-13 01:59:00,48.3,41.0,29.60,South,180,0.0,0.0,76,0.02,,,0.02,WUHU216HW,2013-02-13 06:59:00,
2013-02-13 02:00:00,59.0,32.5,29.62,WNW,293,0.0,0.0,38,0.00,,,0.00,WUHU216HW,2013-02-13 07:00:00,
2013-02-13 02:01:00,59.0,32.5,29.62,WNW,293,0.0,0.0,38,0.00,,,0.00,WUHU216HW,2013-02-13 07:01:00,
2013-02-13 02:02:00,59.0,32.5,29.62,WNW,293,0.0,0.0,38,0.00,,,0.00,WUHU216HW,2013-02-13 07:02:00,
2013-02-13 02:03:00,59.0,32.5,29.62,WNW,293,0.0,0.0,39,0.00,,,0.00,WUHU216HW,2013-02-13 07:03:00,
2013-02-13 02:04:00,59.0,32.5,29.62,WNW,293,0.0,0.0,39,0.00,,,0.00,WUHU216HW,2013-02-13 07:04:00,
2013-02-13 02:05:00,48.2,40.8,29.59,South,180,0.0,0.0,76,0.02,,,0.02,WUHU216HW,2013-02-13 07:05:00,
2013-02-13 02:06:00,59.0,32.5,29.62,WNW,293,0.0,0.0,39,0.00,,,0.00,WUHU216HW,2013-02-13 07:06:00,
2013-02-13 02:07:00,58.6,34.3,29.62,WNW,293,0.0,0.0,40,0.00,,,0.00,WUHU216HW,2013-02-13 07:07:00,
2013-02-13 02:08:00,58.6,34.3,29.62,WNW,293,0.0,0.0,40,0.00,,,0.00,WUHU216HW,2013-02-13 07:08:00,
2013-02-13 02:09:00,58.6,34.3,29.63,WNW,293,0.0,0.0,40,0.00,,,0.00,WUHU216HW,2013-02-13 07:09:00,
2013-02-13 02:10:00,48.0,41.0,29.57,South,180,0.0,0.0,77,0.02,,,0.02,WUHU216HW,2013-02-13 07:10:00,
2013-02-13 02:11:00,58.2,34.0,29.62,WNW,293,0.0,0.0,40,0.00,,,0.00,WUHU216HW,2013-02-13 07:11:00,
2013-02-13 02:12:00,58.2,34.0,29.63,WNW,293,0.0,0.0,40,0.00,,,0.00,WUHU216HW,2013-02-13 07:12:00,
2013-02-13 02:13:00,58.2,34.0,29.63,WNW,293,0.0,0.0,40,0.00,,,0.00,WUHU216HW,2013-02-13 07:13:00,
2013-02-13 02:14:00,58.1,33.8,29.63,WNW,293,0.0,0.0,40,0.00,,,0.00,WUHU216HW,2013-02-13 07:14:00,
2013-02-13 02:15:00,47.8,40.9,29.57,South,180,0.0,0.0,77,0.02,,,0.02,WUHU216HW,2013-02-13 07:15:00,
2013-02-13 02:16:00,57.9,33.7,29.63,WNW,293,0.0,0.0,40,0.00,,,0.00,WUHU216HW,2013-02-13 07:16:00,
2013-02-13 02:17:00,57.9,33.7,29.63,WNW,293,0.0,0.0,40,0.00,,,0.00,WUHU216HW,2013-02-13 07:17:00,
2013-02-13 02:18:00,57.9,33.7,29.63,WNW,293,0.0,0.0,41,0.00,,,0.00,WUHU216HW,2013-02-13 07:18:00,
2013-02-13 02:19:00,57.9,33.7,29.63,WNW,293,0.0,0.0,41,0.00,,,0.00,WUHU216HW,2013-02-13 07:19:00,
2013-02-13 02:20:00,47.8,40.9,29.57,South,180,0.0,0.0,77,0.02,,,0.02,WUHU216HW,2013-02-13 07:20:00,
2013-02-13 02:21:00,57.7,34.1,29.63,WNW,293,0.0,0.0,41,0.00,,,0.00,WUHU216HW,2013-02-13 07:21:00,
2013-02-13 02:22:00,57.3,33.8,29.63,WNW,293,0.0,0.0,41,0.00,,,0.00,WUHU216HW,2013-02-13 07:22:00,
2013-02-13 02:23:00,57.3,33.8,29.63,WNW,293,0.0,0.0,41,0.00,,,0.00,WUHU216HW,2013-02-13 07:23:00,
2013-02-13 02:24:00,57.3,33.8,29.63,WNW,293,0.0,0.0,41,0.00,,,0.00,WUHU216HW,2013-02-13 07:24:00,
2013-02-13 02:25:00,47.8,40.9,29.57,South,180,0.0,0.0,77,0.02,,,0.02,WUHU216HW,2013-02-13 07:25:00,
2013-02-13 02:26:00,57.3,33.8,29.63,WNW,293,0.0,0.0,41,0.00,,,0.00,WUHU216HW,2013-02-13 07:26:00,
2013-02-13 02:27:00,57.3,33.8,29.63,WNW,293,0.0,0.0,41,0.00,,,0.00,WUHU216HW,2013-02-13 07:27:00,
2013-02-13 02:28:00,57.3,33.8,29.63,WNW,293,0.0,0.0,41,0.00,,,0.00,WUHU216HW,2013-02-13 07:28:00,
2013-02-13 02:29:00,57.0,33.4,29.63,WNW,293,0.0,0.0,41,0.00,,,0.00,WUHU216HW,2013-02-13 07:29:00,
2013-02-13 02:30:00,47.8,40.9,29.57,South,180,0.0,0.0,76,0.02,,,0.02,WUHU216HW,2013-02-13 07:30:00,
2013-02-13 02:31:00,57.0,33.4,29.63,WNW,293,0.0,0.0,41,0.00,,,0.00,WUHU216HW,2013-02-13 07:31:00,
2013-02-13 02:32:00,57.0,33.4,29.63,WNW,293,0.0,0.0,41,0.00,,,0.00,WUHU216HW,2013-02-13 07:32:00,
2013-02-13 02:33:00,56.8,33.9,29.63,WNW,293,0.0,0.0,42,0.00,,,0.00,WUHU216HW,2013-02-13 07:33:00,
2013-02-13 02:34:00,56.8,33.9,29.63,WNW,293,0.0,0.0,42,0.00,,,0.00,WUHU216HW,2013-02-13 07:34:00,
2013-02-13 02:35:00,47.8,40.9,29.58,South,180,0.0,0.0,75,0.02,,,0.02,WUHU216HW,2013-02-13 07:35:00,
2013-02-13 02:36:00,56.8,33.9,29.63,WNW,293,0.0,0.0,42,0.00,,,0.00,WUHU216HW,2013-02-13 07:36:00,
2013-02-13 02:37:00,56.6,33.7,29.63,WNW,293,0.0,0.0,42,0.00,,,0.00,WUHU216HW,2013-02-13 07:37:00,
2013-02-13 02:38:00,56.6,33.7,29.63,WNW,293,0.0,0.0,42,0.00,,,0.00,WUHU216HW,2013-02-13 07:38:00,
2013-02-13 02:39:00,56.4,33.5,29.63,WNW,293,0.0,0.0,42,0.00,,,0.00,WUHU216HW,2013-02-13 07:39:00,
2013-02-13 02:41:00,47.8,40.9,29.58,South,180,0.0,0.0,75,0.02,,,0.02,WUHU216HW,2013-02-13 07:41:00,
2013-02-13 02:42:00,56.4,33.5,29.63,WNW,293,0.0,0.0,43,0.00,,,0.00,WUHU216HW,2013-02-13 07:42:00,
2013-02-13 02:43:00,56.4,33.5,29.63,WNW,293,0.0,0.0,43,0.00,,,0.00,WUHU216HW,2013-02-13 07:43:00,
2013-02-13 02:45:00,56.1,33.8,29.63,WNW,293,0.0,0.0,43,0.00,,,0.00,WUHU216HW,2013-02-13 07:45:00,
2013-02-13 02:46:00,48.0,40.3,29.57,South,180,0.0,0.0,76,0.02,,,0.02,WUHU216HW,2013-02-13 07:46:00,
2013-02-13 02:47:00,56.1,33.8,29.63,WNW,293,0.0,0.0,43,0.00,,,0.00,WUHU216HW,2013-02-13 07:47:00,
2013-02-13 02:48:00,55.9,33.6,29.64,WNW,293,0.0,0.0,43,0.00,,,0.00,WUHU216HW,2013-02-13 07:48:00,
2013-02-13 02:49:00,55.9,33.6,29.64,WNW,293,0.0,0.0,43,0.00,,,0.00,WUHU216HW,2013-02-13 07:49:00,
2013-02-13 02:50:00,55.7,34.0,29.64,WNW,293,0.0,0.0,44,0.00,,,0.00,WUHU216HW,2013-02-13 07:50:00,
2013-02-13 02:51:00,48.0,40.3,29.57,South,180,0.0,0.0,77,0.02,,,0.02,WUHU216HW,2013-02-13 07:51:00,
2013-02-13 02:52:00,55.5,33.8,29.64,WNW,293,0.0,0.0,44,0.00,,,0.00,WUHU216HW,2013-02-13 07:52:00,
2013-02-13 02:53:00,55.5,33.8,29.64,WNW,293,0.0,0.0,44,0.00,,,0.00,WUHU216HW,2013-02-13 07:53:00,
2013-02-13 02:54:00,55.5,33.8,29.64,WNW,293,0.0,0.0,44,0.00,,,0.00,WUHU216HW,2013-02-13 07:54:00,
2013-02-13 02:55:00,55.2,33.5,29.64,WNW,293,0.0,0.0,44,0.00,,,0.00,WUHU216HW,2013-02-13 07:55:00,
2013-02-13 02:56:00,48.0,40.3,29.58,South,180,0.0,0.0,77,0.02,,,0.02,WUHU216HW,2013-02-13 07:56:00,
2013-02-13 02:57:00,55.2,33.5,29.64,WNW,293,0.0,0.0,44,0.00,,,0.00,WUHU216HW,2013-02-13 07:57:00,
2013-02-13 02:58:00,55.2,33.5,29.64,WNW,293,0.0,0.0,44,0.00,,,0.00,WUHU216HW,2013-02-13 07:58:00,
2013-02-13 02:59:00,55.0,33.9,29.64,WNW,293,0.0,0.0,45,0.00,,,0.00,WUHU216HW,2013-02-13 07:59:00,
2013-02-13 03:00:00,55.0,33.9,29.64,WNW,293,0.0,0.0,45,0.00,,,0.00,WUHU216HW,2013-02-13 08:00:00,
2013-02-13 03:01:00,55.0,33.9,29.64,WNW,293,0.0,0.0,45,0.00,,,0.00,WUHU216HW,2013-02-13 08:01:00,
2013-02-13 03:02:00,48.0,40.3,29.58,South,180,0.0,0.0,77,0.00,,,0.02,WUHU216HW,2013-02-13 08:02:00,
2013-02-13 03:03:00,54.6,33.6,29.64,WNW,293,0.0,0.0,45,0.00,,,0.00,WUHU216HW,2013-02-13 08:03:00,
2013-02-13 03:04:00,54.6,33.6,29.64,WNW,293,0.0,0.0,45,0.00,,,0.00,WUHU216HW,2013-02-13 08:04:00,
2013-02-13 03:05:00,54.5,34.0,29.65,WNW,293,0.0,0.0,46,0.00,,,0.00,WUHU216HW,2013-02-13 08:05:00,
2013-02-13 03:06:00,54.5,34.0,29.65,WNW,293,0.0,0.0,46,0.00,,,0.00,WUHU216HW,2013-02-13 08:06:00,
2013-02-13 03:07:00,47.6,41.0,29.59,South,180,0.0,0.0,78,0.00,,,0.02,WUHU216HW,2013-02-13 08:07:00,
2013-02-13 03:08:00,54.1,33.6,29.65,WNW,293,0.0,0.0,46,0.00,,,0.00,WUHU216HW,2013-02-13 08:08:00,
2013-02-13 03:09:00,54.1,33.6,29.65,WNW,293,0.0,0.0,46,0.00,,,0.00,WUHU216HW,2013-02-13 08:09:00,
2013-02-13 03:10:00,54.1,33.6,29.65,WNW,293,0.0,0.0,46,0.00,,,0.00,WUHU216HW,2013-02-13 08:10:00,
2013-02-13 03:11:00,54.1,33.6,29.65,WNW,293,0.0,0.0,46,0.00,,,0.00,WUHU216HW,2013-02-13 08:11:00,
2013-02-13 03:12:00,47.4,41.2,29.59,South,180,0.0,0.0,79,0.00,,,0.02,WUHU216HW,2013-02-13 08:12:00,
2013-02-13 03:13:00,53.9,33.5,29.65,WNW,293,0.0,0.0,46,0.00,,,0.00,WUHU216HW,2013-02-13 08:13:00,
2013-02-13 03:14:00,53.7,33.3,29.65,WNW,293,0.0,0.0,46,0.00,,,0.00,WUHU216HW,2013-02-13 08:14:00,
2013-02-13 03:15:00,53.7,33.3,29.65,WNW,293,0.0,0.0,46,0.00,,,0.00,WUHU216HW,2013-02-13 08:15:00,
2013-02-13 03:16:00,53.6,33.1,29.66,WNW,293,0.0,0.0,46,0.00,,,0.00,WUHU216HW,2013-02-13 08:16:00,
2013-02-13 03:17:00,47.3,41.1,29.58,South,180,0.0,0.0,79,0.00,,,0.02,WUHU216HW,2013-02-13 08:17:00,
2013-02-13 03:18:00,53.4,33.5,29.65,WNW,293,0.0,0.0,47,0.00,,,0.00,WUHU216HW,2013-02-13 08:18:00,
2013-02-13 03:19:00,53.4,33.5,29.65,WNW,293,0.0,0.0,47,0.00,,,0.00,WUHU216HW,2013-02-13 08:19:00,
2013-02-13 03:20:00,53.2,33.4,29.65,WNW,293,0.0,0.0,47,0.00,,,0.00,WUHU216HW,2013-02-13 08:20:00,
2013-02-13 03:21:00,53.2,33.4,29.65,WNW,293,0.0,0.0,47,0.00,,,0.00,WUHU216HW,2013-02-13 08:21:00,
2013-02-13 03:22:00,46.9,41.1,29.57,South,180,0.0,0.0,81,0.02,,,0.04,WUHU216HW,2013-02-13 08:22:00,
2013-02-13 03:23:00,53.2,33.4,29.66,WNW,293,0.0,0.0,47,0.00,,,0.00,WUHU216HW,2013-02-13 08:23:00,
2013-02-13 03:24:00,53.2,33.4,29.66,WNW,293,0.0,0.0,47,0.00,,,0.00,WUHU216HW,2013-02-13 08:24:00,
2013-02-13 03:25:00,52.8,33.1,29.66,WNW,293,0.0,0.0,47,0.00,,,0.00,WUHU216HW,2013-02-13 08:25:00,
2013-02-13 03:26:00,52.8,33.1,29.66,WNW,293,0.0,0.0,47,0.00,,,0.00,WUHU216HW,2013-02-13 08:26:00,
2013-02-13 03:27:00,46.9,41.1,29.59,South,180,0.0,0.0,82,0.02,,,0.04,WUHU216HW,2013-02-13 08:27:00,
2013-02-13 03:28:00,52.8,33.1,29.66,WNW,293,0.0,0.0,47,0.00,,,0.00,WUHU216HW,2013-02-13 08:28:00,
2013-02-13 03:29:00,52.7,33.4,29.66,WNW,293,0.0,0.0,48,0.00,,,0.00,WUHU216HW,2013-02-13 08:29:00,
2013-02-13 03:31:00,52.7,33.4,29.66,WNW,293,0.0,0.0,49,0.00,,,0.00,WUHU216HW,2013-02-13 08:31:00,
2013-02-13 03:32:00,46.7,41.5,29.57,South,180,0.0,0.0,82,0.02,,,0.04,WUHU216HW,2013-02-13 08:32:00,
2013-02-13 03:33:00,52.5,34.4,29.66,WNW,293,0.0,0.0,50,0.00,,,0.00,WUHU216HW,2013-02-13 08:33:00,
2013-02-13 03:34:00,52.5,34.4,29.66,WNW,293,0.0,0.0,50,0.00,,,0.00,WUHU216HW,2013-02-13 08:34:00,
2013-02-13 03:35:00,52.5,34.4,29.66,WNW,293,0.0,0.0,50,0.00,,,0.00,WUHU216HW,2013-02-13 08:35:00,
2013-02-13 03:36:00,52.5,34.4,29.66,WNW,293,0.0,0.0,50,0.00,,,0.00,WUHU216HW,2013-02-13 08:36:00,
2013-02-13 03:37:00,46.5,41.7,29.57,South,180,0.0,0.0,83,0.02,,,0.04,WUHU216HW,2013-02-13 08:37:00,
2013-02-13 03:38:00,52.3,34.2,29.66,WNW,293,0.0,0.0,50,0.00,,,0.00,WUHU216HW,2013-02-13 08:38:00,
2013-02-13 03:39:00,52.3,34.2,29.66,WNW,293,0.0,0.0,50,0.00,,,0.00,WUHU216HW,2013-02-13 08:39:00,
2013-02-13 03:40:00,52.3,34.2,29.66,WNW,293,0.0,0.0,50,0.00,,,0.00,WUHU216HW,2013-02-13 08:40:00,
2013-02-13 03:42:00,46.5,41.7,29.56,South,180,0.0,0.0,83,0.02,,,0.04,WUHU216HW,2013-02-13 08:42:00,
2013-02-13 03:44:00,51.9,34.8,29.66,WNW,293,0.0,0.0,52,0.00,,,0.00,WUHU216HW,2013-02-13 08:44:00,
2013-02-13 03:45:00,51.9,34.8,29.66,WNW,293,0.0,0.0,52,0.00,,,0.00,WUHU216HW,2013-02-13 08:45:00,
2013-02-13 03:46:00,51.8,35.1,29.66,WNW,293,0.0,0.0,53,0.00,,,0.00,WUHU216HW,2013-02-13 08:46:00,
2013-02-13 03:47:00,51.8,35.1,29.67,WNW,293,0.0,0.0,53,0.00,,,0.00,WUHU216HW,2013-02-13 08:47:00,
2013-02-13 03:48:00,46.2,41.6,29.58,South,180,0.0,0.0,84,0.02,,,0.04,WUHU216HW,2013-02-13 08:48:00,
2013-02-13 03:49:00,51.6,35.4,29.67,WNW,293,0.0,0.0,54,0.00,,,0.00,WUHU216HW,2013-02-13 08:49:00,
2013-02-13 03:51:00,51.6,35.4,29.67,WNW,293,0.0,0.0,54,0.00,,,0.00,WUHU216HW,2013-02-13 08:51:00,
2013-02-13 03:52:00,51.6,35.4,29.67,WNW,293,0.0,0.0,54,0.00,,,0.00,WUHU216HW,2013-02-13 08:52:00,
2013-02-13 03:53:00,46.2,41.6,29.56,South,180,0.0,0.0,84,0.04,,,0.06,WUHU216HW,2013-02-13 08:53:00,
2013-02-13 03:54:00,51.4,35.2,29.67,WNW,293,0.0,0.0,54,0.00,,,0.00,WUHU216HW,2013-02-13 08:54:00,
2013-02-13 03:55:00,51.4,35.2,29.67,WNW,293,0.0,0.0,54,0.00,,,0.00,WUHU216HW,2013-02-13 08:55:00,
2013-02-13 03:56:00,51.4,35.2,29.67,WNW,293,0.0,0.0,54,0.00,,,0.00,WUHU216HW,2013-02-13 08:56:00,
2013-02-13 03:57:00,51.0,34.5,29.67,WNW,293,0.0,0.0,53,0.00,,,0.00,WUHU216HW,2013-02-13 08:57:00,
2013-02-13 03:58:00,51.0,34.5,29.67,WNW,293,0.0,0.0,53,0.00,,,0.00,WUHU216HW,2013-02-13 08:58:00,
2013-02-13 03:59:00,46.0,41.8,29.56,South,180,0.0,0.0,85,0.04,,,0.06,WUHU216HW,2013-02-13 08:59:00,
2013-02-13 04:00:00,51.0,34.5,29.67,WNW,293,0.0,0.0,54,0.00,,,0.00,WUHU216HW,2013-02-13 09:00:00,
2013-02-13 04:01:00,50.9,34.7,29.67,WNW,293,0.0,0.0,54,0.00,,,0.00,WUHU216HW,2013-02-13 09:01:00,
2013-02-13 04:02:00,50.9,34.7,29.67,WNW,293,0.0,0.0,54,0.00,,,0.00,WUHU216HW,2013-02-13 09:02:00,
2013-02-13 04:03:00,50.7,34.6,29.67,WNW,293,0.0,0.0,54,0.00,,,0.00,WUHU216HW,2013-02-13 09:03:00,
2013-02-13 04:04:00,46.0,41.8,29.56,South,180,0.0,0.0,85,0.06,,,0.08,WUHU216HW,2013-02-13 09:04:00,
2013-02-13 04:05:00,50.7,34.6,29.67,WNW,293,0.0,0.0,54,0.00,,,0.00,WUHU216HW,2013-02-13 09:05:00,
2013-02-13 04:06:00,50.7,34.6,29.68,WNW,293,0.0,0.0,54,0.00,,,0.00,WUHU216HW,2013-02-13 09:06:00,
2013-02-13 04:08:00,50.5,34.4,29.67,WNW,293,0.0,0.0,54,0.00,,,0.00,WUHU216HW,2013-02-13 09:08:00,
2013-02-13 04:09:00,45.8,41.6,29.56,South,180,0.0,0.0,85,0.06,,,0.08,WUHU216HW,2013-02-13 09:09:00,
2013-02-13 04:10:00,50.5,34.4,29.68,WNW,293,0.0,0.0,55,0.00,,,0.00,WUHU216HW,2013-02-13 09:10:00,
2013-02-13 04:14:00,45.8,41.6,29.54,South,180,0.0,0.0,86,0.08,,,0.10,WUHU216HW,2013-02-13 09:14:00,
2013-02-13 04:20:00,45.6,41.7,29.54,South,180,0.0,0.0,86,0.08,,,0.12,WUHU216HW,2013-02-13 09:20:00,
2013-02-13 04:25:00,45.6,41.7,29.54,South,180,0.0,0.0,85,0.10,,,0.14,WUHU216HW,2013-02-13 09:25:00,
2013-02-13 04:30:00,45.5,41.2,29.53,South,180,0.0,0.0,85,0.10,,,0.14,WUHU216HW,2013-02-13 09:30:00,
2013-02-13 04:32:00,49.1,34.4,29.69,WNW,293,0.0,0.0,57,0.00,,,0.00,WUHU216HW,2013-02-13 09:32:00,
2013-02-13 04:34:00,48.9,34.3,29.69,WNW,293,0.0,0.0,57,0.00,,,0.00,WUHU216HW,2013-02-13 09:34:00,
2013-02-13 04:35:00,45.3,41.3,29.53,South,180,0.0,0.0,86,0.12,,,0.16,WUHU216HW,2013-02-13 09:35:00,
2013-02-13 04:36:00,48.9,34.3,29.69,WNW,293,0.0,0.0,58,0.00,,,0.00,WUHU216HW,2013-02-13 09:36:00,
2013-02-13 04:37:00,48.9,34.3,29.69,WNW,293,0.0,0.0,58,0.00,,,0.00,WUHU216HW,2013-02-13 09:37:00,
2013-02-13 04:38:00,48.9,34.3,29.69,WNW,293,0.0,0.0,58,0.00,,,0.00,WUHU216HW,2013-02-13 09:38:00,
2013-02-13 04:39:00,48.9,34.3,29.69,WNW,293,0.0,0.0,58,0.00,,,0.00,WUHU216HW,2013-02-13 09:39:00,
2013-02-13 04:40:00,45.5,41.5,29.53,South,180,0.0,0.0,86,0.12,,,0.16,WUHU216HW,2013-02-13 09:40:00,
2013-02-13 04:41:00,48.7,35.0,29.69,WNW,293,0.0,0.0,59,0.00,,,0.00,WUHU216HW,2013-02-13 09:41:00,
2013-02-13 04:42:00,48.7,35.0,29.69,WNW,293,0.0,0.0,58,0.00,,,0.00,WUHU216HW,2013-02-13 09:42:00,
2013-02-13 04:43:00,48.7,35.0,29.69,WNW,293,0.0,0.0,58,0.00,,,0.00,WUHU216HW,2013-02-13 09:43:00,
2013-02-13 04:44:00,48.3,34.2,29.70,WNW,293,0.0,0.0,58,0.00,,,0.00,WUHU216HW,2013-02-13 09:44:00,
2013-02-13 04:46:00,45.5,41.5,29.53,South,180,0.0,0.0,86,0.12,,,0.16,WUHU216HW,2013-02-13 09:46:00,
2013-02-13 04:51:00,45.5,41.5,29.55,South,180,0.0,0.0,86,0.12,,,0.16,WUHU216HW,2013-02-13 09:51:00,
2013-02-13 04:56:00,45.5,41.5,29.54,South,180,0.0,0.0,86,0.12,,,0.16,WUHU216HW,2013-02-13 09:56:00,
2013-02-13 05:01:00,45.5,41.5,29.54,South,180,0.0,0.0,87,0.08,,,0.16,WUHU216HW,2013-02-13 10:01:00,
2013-02-13 05:02:00,47.3,35.3,29.70,WNW,293,0.0,0.0,63,0.00,,,0.00,WUHU216HW,2013-02-13 10:02:00,
2013-02-13 05:03:00,47.3,35.3,29.70,WNW,293,0.0,0.0,62,0.00,,,0.00,WUHU216HW,2013-02-13 10:03:00,
2013-02-13 05:04:00,47.3,35.3,29.70,WNW,293,0.0,0.0,62,0.00,,,0.00,WUHU216HW,2013-02-13 10:04:00,
2013-02-13 05:05:00,47.3,35.3,29.70,WNW,293,0.0,0.0,62,0.00,,,0.00,WUHU216HW,2013-02-13 10:05:00,
2013-02-13 05:06:00,45.5,41.5,29.55,South,180,0.0,0.0,87,0.08,,,0.16,WUHU216HW,2013-02-13 10:06:00,
2013-02-13 05:07:00,47.1,35.1,29.71,WNW,293,0.0,0.0,63,0.00,,,0.00,WUHU216HW,2013-02-13 10:07:00,
2013-02-13 05:08:00,47.1,35.1,29.71,WNW,293,0.0,0.0,62,0.00,,,0.00,WUHU216HW,2013-02-13 10:08:00,
2013-02-13 05:09:00,47.1,35.1,29.71,WNW,293,0.0,0.0,62,0.00,,,0.00,WUHU216HW,2013-02-13 10:09:00,
2013-02-13 05:10:00,46.9,34.5,29.71,WNW,293,0.0,0.0,62,0.00,,,0.00,WUHU216HW,2013-02-13 10:10:00,
2013-02-13 05:11:00,45.5,41.5,29.54,South,180,0.0,0.0,87,0.08,,,0.16,WUHU216HW,2013-02-13 10:11:00,
2013-02-13 05:12:00,46.9,34.5,29.71,WNW,293,0.0,0.0,63,0.00,,,0.00,WUHU216HW,2013-02-13 10:12:00,
2013-02-13 05:13:00,46.9,34.5,29.71,WNW,293,0.0,0.0,63,0.00,,,0.00,WUHU216HW,2013-02-13 10:13:00,
2013-02-13 05:16:00,45.3,41.7,29.54,South,180,0.0,0.0,87,0.08,,,0.16,WUHU216HW,2013-02-13 10:16:00,
2013-02-13 05:20:00,46.5,34.6,29.71,WNW,293,0.0,0.0,63,0.00,,,0.00,WUHU216HW,2013-02-13 10:20:00,
2013-02-13 05:21:00,45.3,41.7,29.55,South,180,0.0,0.0,87,0.08,,,0.16,WUHU216HW,2013-02-13 10:21:00,
2013-02-13 05:22:00,46.5,34.6,29.71,WNW,293,0.0,0.0,63,0.00,,,0.00,WUHU216HW,2013-02-13 10:22:00,
2013-02-13 05:23:00,46.5,34.6,29.71,WNW,293,0.0,0.0,62,0.00,,,0.00,WUHU216HW,2013-02-13 10:23:00,
2013-02-13 05:24:00,46.5,34.6,29.71,WNW,293,0.0,0.0,62,0.00,,,0.00,WUHU216HW,2013-02-13 10:24:00,
2013-02-13 05:25:00,46.4,34.0,29.71,WNW,293,0.0,0.0,62,0.00,,,0.00,WUHU216HW,2013-02-13 10:25:00,
2013-02-13 05:26:00,45.3,41.7,29.54,South,180,0.0,0.0,87,0.08,,,0.16,WUHU216HW,2013-02-13 10:26:00,
2013-02-13 05:27:00,46.2,33.8,29.71,WNW,293,0.0,0.0,62,0.00,,,0.00,WUHU216HW,2013-02-13 10:27:00,
2013-02-13 05:28:00,46.2,33.8,29.71,WNW,293,0.0,0.0,62,0.00,,,0.00,WUHU216HW,2013-02-13 10:28:00,
2013-02-13 05:29:00,46.2,33.8,29.71,WNW,293,0.0,0.0,62,0.00,,,0.00,WUHU216HW,2013-02-13 10:29:00,
2013-02-13 05:30:00,46.2,33.8,29.71,WNW,293,0.0,0.0,62,0.00,,,0.00,WUHU216HW,2013-02-13 10:30:00,
2013-02-13 05:31:00,46.2,33.8,29.71,WNW,293,0.0,0.0,61,0.00,,,0.00,WUHU216HW,2013-02-13 10:31:00,
2013-02-13 05:32:00,45.3,41.7,29.54,South,180,0.0,0.0,87,0.08,,,0.16,WUHU216HW,2013-02-13 10:32:00,
2013-02-13 05:33:00,46.2,33.8,29.71,WNW,293,0.0,0.0,61,0.00,,,0.00,WUHU216HW,2013-02-13 10:33:00,
2013-02-13 05:34:00,46.2,33.8,29.71,WNW,293,0.0,0.0,60,0.00,,,0.00,WUHU216HW,2013-02-13 10:34:00,
2013-02-13 05:35:00,46.2,33.8,29.71,WNW,293,0.0,0.0,60,0.00,,,0.00,WUHU216HW,2013-02-13 10:35:00,
2013-02-13 05:36:00,46.2,33.8,29.71,WNW,293,0.0,0.0,60,0.00,,,0.00,WUHU216HW,2013-02-13 10:36:00,
2013-02-13 05:37:00,45.3,41.7,29.53,South,180,0.0,0.0,87,0.08,,,0.16,WUHU216HW,2013-02-13 10:37:00,
2013-02-13 05:39:00,46.2,33.8,29.71,WNW,293,0.0,0.0,59,0.00,,,0.00,WUHU216HW,2013-02-13 10:39:00,
2013-02-13 05:40:00,46.2,33.8,29.71,WNW,293,0.0,0.0,60,0.00,,,0.00,WUHU216HW,2013-02-13 10:40:00,
2013-02-13 05:42:00,45.1,41.5,29.54,South,180,0.0,0.0,87,0.08,,,0.16,WUHU216HW,2013-02-13 10:42:00,
2013-02-13 05:43:00,46.2,33.8,29.71,WNW,293,0.0,0.0,60,0.00,,,0.00,WUHU216HW,2013-02-13 10:43:00,
2013-02-13 05:44:00,46.2,33.8,29.71,WNW,293,0.0,0.0,60,0.00,,,0.00,WUHU216HW,2013-02-13 10:44:00,
2013-02-13 05:45:00,46.2,33.8,29.71,WNW,293,0.0,0.0,59,0.00,,,0.00,WUHU216HW,2013-02-13 10:45:00,
2013-02-13 05:46:00,46.2,33.8,29.71,WNW,293,0.0,0.0,59,0.00,,,0.00,WUHU216HW,2013-02-13 10:46:00,
2013-02-13 05:47:00,45.1,41.5,29.54,South,180,0.0,0.0,87,0.08,,,0.16,WUHU216HW,2013-02-13 10:47:00,
2013-02-13 05:48:00,46.2,33.8,29.72,WNW,293,0.0,0.0,58,0.00,,,0.00,WUHU216HW,2013-02-13 10:48:00,
2013-02-13 05:49:00,46.2,33.8,29.72,WNW,293,0.0,0.0,58,0.00,,,0.00,WUHU216HW,2013-02-13 10:49:00,
2013-02-13 05:50:00,46.2,33.8,29.72,WNW,293,0.0,0.0,58,0.00,,,0.00,WUHU216HW,2013-02-13 10:50:00,
2013-02-13 05:51:00,46.2,33.8,29.72,WNW,293,0.0,0.0,57,0.00,,,0.00,WUHU216HW,2013-02-13 10:51:00,
2013-02-13 05:52:00,44.9,41.3,29.53,South,180,0.0,0.0,87,0.08,,,0.16,WUHU216HW,2013-02-13 10:52:00,
2013-02-13 05:53:00,46.2,33.8,29.72,WNW,293,0.0,0.0,57,0.00,,,0.00,WUHU216HW,2013-02-13 10:53:00,
2013-02-13 05:54:00,46.2,33.8,29.72,WNW,293,0.0,0.0,57,0.00,,,0.00,WUHU216HW,2013-02-13 10:54:00,
2013-02-13 05:55:00,46.2,33.8,29.72,WNW,293,0.0,0.0,57,0.00,,,0.00,WUHU216HW,2013-02-13 10:55:00,
2013-02-13 05:56:00,46.2,33.8,29.72,WNW,293,0.0,0.0,57,0.00,,,0.00,WUHU216HW,2013-02-13 10:56:00,
2013-02-13 05:57:00,45.1,41.5,29.53,South,180,0.0,0.0,87,0.08,,,0.16,WUHU216HW,2013-02-13 10:57:00,
2013-02-13 06:02:00,45.1,41.5,29.54,South,180,0.0,0.0,87,0.00,,,0.16,WUHU216HW,2013-02-13 11:02:00,
2013-02-13 06:07:00,45.1,41.5,29.53,South,180,0.0,0.0,87,0.00,,,0.16,WUHU216HW,2013-02-13 11:07:00,
2013-02-13 06:12:00,45.1,41.5,29.54,South,180,0.0,0.0,87,0.02,,,0.18,WUHU216HW,2013-02-13 11:12:00,
2013-02-13 06:15:00,45.6,31.7,29.72,WNW,293,0.0,0.0,58,0.00,,,0.00,WUHU216HW,2013-02-13 11:15:00,
2013-02-13 06:16:00,45.6,31.7,29.71,WNW,293,0.0,0.0,58,0.00,,,0.00,WUHU216HW,2013-02-13 11:16:00,
2013-02-13 06:17:00,45.1,41.5,29.54,South,180,0.0,0.0,87,0.02,,,0.18,WUHU216HW,2013-02-13 11:17:00,
2013-02-13 06:20:00,45.6,31.7,29.72,WNW,293,0.0,0.0,59,0.00,,,0.00,WUHU216HW,2013-02-13 11:20:00,
2013-02-13 06:21:00,45.5,32.4,29.72,WNW,293,0.0,0.0,60,0.00,,,0.00,WUHU216HW,2013-02-13 11:21:00,
2013-02-13 06:22:00,45.5,32.4,29.72,WNW,293,0.0,0.0,60,0.00,,,0.00,WUHU216HW,2013-02-13 11:22:00,
2013-02-13 06:23:00,45.1,41.5,29.55,South,180,0.0,0.0,87,0.02,,,0.18,WUHU216HW,2013-02-13 11:23:00,
2013-02-13 06:24:00,45.5,32.4,29.72,WNW,293,0.0,0.0,61,0.00,,,0.00,WUHU216HW,2013-02-13 11:24:00,
2013-02-13 06:25:00,45.3,32.2,29.72,WNW,293,0.0,0.0,60,0.00,,,0.00,WUHU216HW,2013-02-13 11:25:00,
2013-02-13 06:26:00,45.3,32.2,29.72,WNW,293,0.0,0.0,60,0.00,,,0.00,WUHU216HW,2013-02-13 11:26:00,
2013-02-13 06:27:00,45.3,32.2,29.72,WNW,293,0.0,0.0,59,0.00,,,0.00,WUHU216HW,2013-02-13 11:27:00,
2013-02-13 06:28:00,45.1,41.5,29.55,South,180,0.0,0.0,87,0.02,,,0.18,WUHU216HW,2013-02-13 11:28:00,
2013-02-13 06:29:00,45.3,32.2,29.72,WNW,293,0.0,0.0,59,0.00,,,0.00,WUHU216HW,2013-02-13 11:29:00,
2013-02-13 06:30:00,45.3,32.2,29.72,WNW,293,0.0,0.0,59,0.00,,,0.00,WUHU216HW,2013-02-13 11:30:00,
2013-02-13 06:31:00,45.3,32.2,29.72,WNW,293,0.0,0.0,59,0.00,,,0.00,WUHU216HW,2013-02-13 11:31:00,
2013-02-13 06:32:00,45.1,31.6,29.72,WNW,293,0.0,0.0,59,0.00,,,0.00,WUHU216HW,2013-02-13 11:32:00,
2013-02-13 06:33:00,45.1,31.6,29.72,WNW,293,0.0,0.0,59,0.00,,,0.00,WUHU216HW,2013-02-13 11:33:00,
2013-02-13 06:34:00,44.9,41.3,29.55,South,180,0.0,0.0,87,0.02,,,0.18,WUHU216HW,2013-02-13 11:34:00,
2013-02-13 06:35:00,45.1,31.6,29.72,WNW,293,0.0,0.0,60,0.00,,,0.00,WUHU216HW,2013-02-13 11:35:00,
2013-02-13 06:39:00,44.9,41.3,29.54,South,180,0.0,0.0,87,0.02,,,0.18,WUHU216HW,2013-02-13 11:39:00,
2013-02-13 06:40:00,44.9,31.9,29.72,WNW,293,0.0,0.0,62,0.00,,,0.00,WUHU216HW,2013-02-13 11:40:00,
2013-02-13 06:42:00,44.9,31.9,29.72,WNW,293,0.0,0.0,62,0.00,,,0.00,WUHU216HW,2013-02-13 11:42:00,
2013-02-13 06:43:00,44.9,31.9,29.72,WNW,293,0.0,0.0,63,0.00,,,0.00,WUHU216HW,2013-02-13 11:43:00,
2013-02-13 06:44:00,44.9,41.3,29.54,South,180,0.0,0.0,87,0.02,,,0.18,WUHU216HW,2013-02-13 11:44:00,
2013-02-13 06:45:00,44.7,32.9,29.72,WNW,293,0.0,0.0,63,0.00,,,0.00,WUHU216HW,2013-02-13 11:45:00,
2013-02-13 06:46:00,44.7,32.9,29.72,WNW,293,0.0,0.0,63,0.00,,,0.00,WUHU216HW,2013-02-13 11:46:00,
2013-02-13 06:47:00,44.6,32.7,29.72,WNW,293,0.0,0.0,63,0.00,,,0.00,WUHU216HW,2013-02-13 11:47:00,
2013-02-13 06:48:00,44.6,32.7,29.72,WNW,293,0.0,0.0,63,0.00,,,0.00,WUHU216HW,2013-02-13 11:48:00,
2013-02-13 06:49:00,44.9,41.3,29.55,South,180,0.0,0.0,87,0.02,,,0.18,WUHU216HW,2013-02-13 11:49:00,
2013-02-13 06:50:00,44.4,32.9,29.72,WNW,293,0.0,0.0,64,0.00,,,0.00,WUHU216HW,2013-02-13 11:50:00,
2013-02-13 06:51:00,44.4,32.9,29.72,WNW,293,0.0,0.0,64,0.00,,,0.00,WUHU216HW,2013-02-13 11:51:00,
2013-02-13 06:52:00,44.4,32.9,29.73,WNW,293,0.0,0.0,64,0.00,,,0.00,WUHU216HW,2013-02-13 11:52:00,
2013-02-13 06:53:00,44.4,32.9,29.73,WNW,293,0.0,0.0,65,0.00,,,0.00,WUHU216HW,2013-02-13 11:53:00,
2013-02-13 06:54:00,44.7,41.1,29.54,South,180,0.0,0.0,88,0.02,,,0.18,WUHU216HW,2013-02-13 11:54:00,
2013-02-13 06:59:00,44.7,41.1,29.54,South,180,0.0,0.0,88,0.02,,,0.18,WUHU216HW,2013-02-13 11:59:00,
2013-02-13 07:04:00,44.7,41.1,29.54,South,180,0.0,0.0,88,0.02,,,0.18,WUHU216HW,2013-02-13 12:04:00,
2013-02-13 07:10:00,44.7,41.1,29.54,South,180,0.0,0.0,88,0.02,,,0.18,WUHU216HW,2013-02-13 12:10:00,
2013-02-13 07:11:00,43.7,33.0,29.72,WNW,293,0.0,0.0,66,0.00,,,0.00,WUHU216HW,2013-02-13 12:11:00,
2013-02-13 07:12:00,43.7,33.0,29.73,WNW,293,0.0,0.0,66,0.00,,,0.00,WUHU216HW,2013-02-13 12:12:00,
2013-02-13 07:13:00,43.7,33.0,29.73,WNW,293,0.0,0.0,67,0.00,,,0.00,WUHU216HW,2013-02-13 12:13:00,
2013-02-13 07:14:00,43.7,33.0,29.73,WNW,293,0.0,0.0,67,0.00,,,0.00,WUHU216HW,2013-02-13 12:14:00,
2013-02-13 07:15:00,44.7,41.1,29.54,South,180,0.0,0.0,88,0.02,,,0.18,WUHU216HW,2013-02-13 12:15:00,
2013-02-13 07:16:00,43.5,33.2,29.73,WNW,293,0.0,0.0,67,0.00,,,0.00,WUHU216HW,2013-02-13 12:16:00,
2013-02-13 07:17:00,43.5,33.2,29.73,WNW,293,0.0,0.0,68,0.00,,,0.00,WUHU216HW,2013-02-13 12:17:00,
2013-02-13 07:18:00,43.5,33.2,29.73,WNW,293,0.0,0.0,68,0.00,,,0.00,WUHU216HW,2013-02-13 12:18:00,
2013-02-13 07:19:00,43.3,33.1,29.73,WNW,293,0.0,0.0,67,0.00,,,0.00,WUHU216HW,2013-02-13 12:19:00,
2013-02-13 07:20:00,43.3,33.1,29.73,WNW,293,0.0,0.0,67,0.00,,,0.00,WUHU216HW,2013-02-13 12:20:00,
2013-02-13 07:21:00,44.6,41.2,29.55,South,180,0.0,0.0,88,0.02,,,0.18,WUHU216HW,2013-02-13 12:21:00,
2013-02-13 07:22:00,43.3,33.1,29.73,WNW,293,0.0,0.0,68,0.00,,,0.00,WUHU216HW,2013-02-13 12:22:00,
2013-02-13 07:23:00,43.3,33.1,29.73,WNW,293,0.0,0.0,68,0.00,,,0.00,WUHU216HW,2013-02-13 12:23:00,
2013-02-13 07:24:00,43.3,33.1,29.73,WNW,293,0.0,0.0,68,0.00,,,0.00,WUHU216HW,2013-02-13 12:24:00,
2013-02-13 07:25:00,43.3,33.1,29.73,WNW,293,0.0,0.0,68,0.00,,,0.00,WUHU216HW,2013-02-13 12:25:00,
2013-02-13 07:26:00,44.7,41.4,29.54,South,180,0.0,0.0,88,0.02,,,0.18,WUHU216HW,2013-02-13 12:26:00,
2013-02-13 07:27:00,43.3,33.1,29.73,WNW,293,0.0,0.0,69,0.00,,,0.00,WUHU216HW,2013-02-13 12:27:00,
2013-02-13 07:28:00,42.9,33.5,29.73,WNW,293,0.0,0.0,69,0.00,,,0.00,WUHU216HW,2013-02-13 12:28:00,
2013-02-13 07:29:00,42.9,33.5,29.73,WNW,293,0.0,0.0,69,0.00,,,0.00,WUHU216HW,2013-02-13 12:29:00,
2013-02-13 07:30:00,42.9,33.5,29.73,WNW,293,0.0,0.0,69,0.00,,,0.00,WUHU216HW,2013-02-13 12:30:00,
2013-02-13 07:31:00,44.6,41.2,29.56,South,180,0.0,0.0,88,0.02,,,0.18,WUHU216HW,2013-02-13 12:31:00,
2013-02-13 07:32:00,42.9,33.5,29.73,WNW,293,0.0,0.0,69,0.00,,,0.00,WUHU216HW,2013-02-13 12:32:00,
2013-02-13 07:33:00,42.9,33.5,29.73,WNW,293,0.0,0.0,69,0.00,,,0.00,WUHU216HW,2013-02-13 12:33:00,
2013-02-13 07:34:00,42.8,33.0,29.74,WNW,293,0.0,0.0,68,0.00,,,0.00,WUHU216HW,2013-02-13 12:34:00,
2013-02-13 07:35:00,42.8,33.0,29.74,WNW,293,0.0,0.0,68,0.00,,,0.00,WUHU216HW,2013-02-13 12:35:00,
2013-02-13 07:36:00,44.7,41.4,29.54,South,180,0.0,0.0,88,0.02,,,0.18,WUHU216HW,2013-02-13 12:36:00,
2013-02-13 07:37:00,42.6,32.4,29.74,WNW,293,0.0,0.0,67,0.00,,,0.00,WUHU216HW,2013-02-13 12:37:00,
2013-02-13 07:38:00,42.6,32.4,29.74,WNW,293,0.0,0.0,67,0.00,,,0.00,WUHU216HW,2013-02-13 12:38:00,
2013-02-13 07:39:00,42.4,32.6,29.74,WNW,293,0.0,0.0,68,0.00,,,0.00,WUHU216HW,2013-02-13 12:39:00,
2013-02-13 07:40:00,42.4,32.6,29.74,WNW,293,0.0,0.0,68,0.00,,,0.00,WUHU216HW,2013-02-13 12:40:00,
2013-02-13 07:41:00,42.4,32.6,29.74,WNW,293,0.0,0.0,69,0.00,,,0.00,WUHU216HW,2013-02-13 12:41:00,
2013-02-13 07:42:00,44.7,41.4,29.54,SSE,158,0.0,0.0,88,0.02,,,0.18,WUHU216HW,2013-02-13 12:42:00,
2013-02-13 07:43:00,42.4,32.6,29.74,WNW,293,0.0,0.0,69,0.00,,,0.00,WUHU216HW,2013-02-13 12:43:00,
2013-02-13 07:44:00,42.4,32.6,29.74,WNW,293,0.0,0.0,69,0.00,,,0.00,WUHU216HW,2013-02-13 12:44:00,
2013-02-13 07:45:00,42.4,32.6,29.74,WNW,293,0.0,0.0,70,0.00,,,0.00,WUHU216HW,2013-02-13 12:45:00,
2013-02-13 07:46:00,42.4,32.6,29.74,WNW,293,0.0,0.0,70,0.00,,,0.00,WUHU216HW,2013-02-13 12:46:00,
2013-02-13 07:47:00,44.7,41.4,29.54,SSE,158,0.0,0.0,88,0.02,,,0.18,WUHU216HW,2013-02-13 12:47:00,
2013-02-13 07:48:00,42.0,33.0,29.74,WNW,293,0.0,0.0,70,0.00,,,0.00,WUHU216HW,2013-02-13 12:48:00,
2013-02-13 07:52:00,44.7,41.4,29.55,SSE,158,0.0,0.0,88,0.02,,,0.18,WUHU216HW,2013-02-13 12:52:00,
2013-02-13 07:55:00,41.7,33.0,29.74,WNW,293,0.0,0.0,71,0.00,,,0.00,WUHU216HW,2013-02-13 12:55:00,
2013-02-13 07:56:00,41.7,33.0,29.74,WNW,293,0.0,0.0,71,0.00,,,0.00,WUHU216HW,2013-02-13 12:56:00,
2013-02-13 07:57:00,41.7,33.0,29.75,WNW,293,0.0,0.0,71,0.00,,,0.00,WUHU216HW,2013-02-13 12:57:00,
2013-02-13 07:58:00,44.6,41.2,29.54,SSE,158,0.0,0.0,88,0.02,,,0.18,WUHU216HW,2013-02-13 12:58:00,
2013-02-13 07:59:00,41.7,33.0,29.75,WNW,293,0.0,0.0,72,0.00,,,0.00,WUHU216HW,2013-02-13 12:59:00,
2013-02-13 08:00:00,41.5,33.1,29.75,WNW,293,0.0,0.0,72,0.00,,,0.00,WUHU216HW,2013-02-13 13:00:00,
2013-02-13 08:01:00,41.5,33.1,29.75,WNW,293,0.0,0.0,72,0.00,,,0.00,WUHU216HW,2013-02-13 13:01:00,
2013-02-13 08:02:00,41.5,33.1,29.75,WNW,293,0.0,0.0,72,0.00,,,0.00,WUHU216HW,2013-02-13 13:02:00,
2013-02-13 08:03:00,44.6,41.2,29.53,ESE,113,0.0,0.0,88,0.00,,,0.18,WUHU216HW,2013-02-13 13:03:00,
2013-02-13 08:04:00,41.5,33.1,29.74,WNW,293,0.0,0.0,72,0.00,,,0.00,WUHU216HW,2013-02-13 13:04:00,
2013-02-13 08:05:00,41.5,33.1,29.75,WNW,293,0.0,0.0,72,0.00,,,0.00,WUHU216HW,2013-02-13 13:05:00,
2013-02-13 08:06:00,41.1,33.1,29.75,WNW,293,0.0,0.0,73,0.00,,,0.00,WUHU216HW,2013-02-13 13:06:00,
2013-02-13 08:07:00,41.1,33.1,29.74,WNW,293,0.0,0.0,73,0.00,,,0.00,WUHU216HW,2013-02-13 13:07:00,
2013-02-13 08:08:00,44.6,41.2,29.52,East,90,0.0,0.0,88,0.00,,,0.18,WUHU216HW,2013-02-13 13:08:00,
2013-02-13 08:11:00,40.8,32.7,29.74,WNW,293,0.0,0.0,73,0.00,,,0.00,WUHU216HW,2013-02-13 13:11:00,
2013-02-13 08:12:00,40.6,32.6,29.74,WNW,293,0.0,0.0,73,0.00,,,0.00,WUHU216HW,2013-02-13 13:12:00,
2013-02-13 08:13:00,44.7,41.4,29.53,NE,45,0.0,0.0,88,0.00,,,0.18,WUHU216HW,2013-02-13 13:13:00,
2013-02-13 08:14:00,40.6,32.6,29.74,WNW,293,0.0,0.0,73,0.00,,,0.00,WUHU216HW,2013-02-13 13:14:00,
2013-02-13 08:15:00,40.6,32.6,29.75,WNW,293,0.0,0.0,73,0.00,,,0.00,WUHU216HW,2013-02-13 13:15:00,
2013-02-13 08:17:00,40.2,32.2,29.75,WNW,293,0.0,0.0,73,0.00,,,0.00,WUHU216HW,2013-02-13 13:17:00,
2013-02-13 08:18:00,44.7,41.4,29.54,NE,45,0.0,0.0,88,0.00,,,0.18,WUHU216HW,2013-02-13 13:18:00,
2013-02-13 08:19:00,40.2,32.2,29.75,WNW,293,0.0,0.0,73,0.00,,,0.00,WUHU216HW,2013-02-13 13:19:00,
2013-02-13 08:20:00,40.2,32.2,29.75,WNW,293,0.0,0.0,73,0.00,,,0.00,WUHU216HW,2013-02-13 13:20:00,
2013-02-13 08:21:00,40.2,32.2,29.75,WNW,293,0.0,0.0,73,0.00,,,0.00,WUHU216HW,2013-02-13 13:21:00,
2013-02-13 08:22:00,40.2,32.2,29.75,WNW,293,0.0,0.0,73,0.00,,,0.00,WUHU216HW,2013-02-13 13:22:00,
2013-02-13 08:23:00,44.7,41.4,29.55,NE,45,0.0,0.0,88,0.00,,,0.18,WUHU216HW,2013-02-13 13:23:00,
2013-02-13 08:24:00,40.2,32.2,29.75,WNW,293,0.0,0.0,73,0.00,,,0.00,WUHU216HW,2013-02-13 13:24:00,
2013-02-13 08:25:00,40.2,32.2,29.75,WNW,293,0.0,0.0,73,0.00,,,0.00,WUHU216HW,2013-02-13 13:25:00,
2013-02-13 08:26:00,40.2,32.2,29.75,WNW,293,0.0,0.0,73,0.00,,,0.00,WUHU216HW,2013-02-13 13:26:00,
2013-02-13 08:27:00,40.2,32.2,29.75,WNW,293,0.0,0.0,73,0.00,,,0.00,WUHU216HW,2013-02-13 13:27:00,
2013-02-13 08:28:00,44.9,41.6,29.54,ENE,68,0.0,0.8,88,0.00,,,0.18,WUHU216HW,2013-02-13 13:28:00,
2013-02-13 08:29:00,40.2,32.2,29.75,WNW,293,0.0,0.0,73,0.00,,,0.00,WUHU216HW,2013-02-13 13:29:00,
2013-02-13 08:30:00,40.2,32.2,29.75,WNW,293,0.0,0.0,73,0.00,,,0.00,WUHU216HW,2013-02-13 13:30:00,
2013-02-13 08:31:00,40.2,32.2,29.75,WNW,293,0.0,0.0,73,0.00,,,0.00,WUHU216HW,2013-02-13 13:31:00,
2013-02-13 08:32:00,40.2,32.2,29.75,WNW,293,0.0,0.0,73,0.00,,,0.00,WUHU216HW,2013-02-13 13:32:00,
2013-02-13 08:33:00,44.7,41.4,29.54,ENE,68,0.0,0.8,88,0.00,,,0.18,WUHU216HW,2013-02-13 13:33:00,
2013-02-13 08:34:00,39.9,31.9,29.75,WNW,293,0.0,0.0,73,0.00,,,0.00,WUHU216HW,2013-02-13 13:34:00,
2013-02-13 08:35:00,39.9,31.9,29.76,WNW,293,0.0,0.0,73,0.00,,,0.00,WUHU216HW,2013-02-13 13:35:00,
2013-02-13 08:36:00,39.9,31.9,29.75,WNW,293,0.0,0.0,73,0.00,,,0.00,WUHU216HW,2013-02-13 13:36:00,
2013-02-13 08:37:00,39.9,31.9,29.75,WNW,293,0.0,0.0,73,0.00,,,0.00,WUHU216HW,2013-02-13 13:37:00,
2013-02-13 08:38:00,44.7,41.4,29.54,ENE,68,0.0,0.0,88,0.00,,,0.18,WUHU216HW,2013-02-13 13:38:00,
2013-02-13 08:39:00,39.9,31.9,29.75,WNW,293,0.0,0.0,73,0.00,,,0.00,WUHU216HW,2013-02-13 13:39:00,
2013-02-13 08:40:00,39.9,31.9,29.75,WNW,293,0.0,0.0,73,0.00,,,0.00,WUHU216HW,2013-02-13 13:40:00,
2013-02-13 08:41:00,39.9,31.9,29.75,WNW,293,0.0,0.0,73,0.00,,,0.00,WUHU216HW,2013-02-13 13:41:00,
2013-02-13 08:42:00,39.9,31.9,29.76,WNW,293,0.0,0.0,73,0.00,,,0.00,WUHU216HW,2013-02-13 13:42:00,
2013-02-13 08:43:00,44.9,41.6,29.55,NE,45,0.0,0.0,88,0.00,,,0.18,WUHU216HW,2013-02-13 13:43:00,
2013-02-13 08:44:00,39.9,31.9,29.76,WNW,293,0.0,0.0,74,0.00,,,0.00,WUHU216HW,2013-02-13 13:44:00,
2013-02-13 08:45:00,39.9,31.9,29.76,WNW,293,0.0,0.0,74,0.00,,,0.00,WUHU216HW,2013-02-13 13:45:00,
2013-02-13 08:47:00,39.9,31.9,29.76,WNW,293,0.0,0.0,74,0.00,,,0.00,WUHU216HW,2013-02-13 13:47:00,
2013-02-13 08:48:00,44.7,41.4,29.55,NE,45,0.0,0.0,88,0.00,,,0.18,WUHU216HW,2013-02-13 13:48:00,
2013-02-13 08:49:00,39.9,31.9,29.76,WNW,293,0.0,0.0,74,0.00,,,0.00,WUHU216HW,2013-02-13 13:49:00,
2013-02-13 08:50:00,39.9,31.9,29.76,WNW,293,0.0,0.0,74,0.00,,,0.00,WUHU216HW,2013-02-13 13:50:00,
2013-02-13 08:51:00,39.9,31.9,29.76,WNW,293,0.0,0.0,74,0.00,,,0.00,WUHU216HW,2013-02-13 13:51:00,
2013-02-13 08:53:00,44.9,41.6,29.55,NE,45,0.0,0.0,88,0.00,,,0.18,WUHU216HW,2013-02-13 13:53:00,
2013-02-13 08:54:00,39.9,31.9,29.76,WNW,293,0.0,0.0,73,0.00,,,0.00,WUHU216HW,2013-02-13 13:54:00,
2013-02-13 08:55:00,39.9,31.9,29.76,WNW,293,0.0,0.0,73,0.00,,,0.00,WUHU216HW,2013-02-13 13:55:00,
2013-02-13 08:56:00,39.9,31.9,29.76,WNW,293,0.0,0.0,72,0.00,,,0.00,WUHU216HW,2013-02-13 13:56:00,
2013-02-13 08:57:00,39.9,31.9,29.76,WNW,293,0.0,0.0,72,0.00,,,0.00,WUHU216HW,2013-02-13 13:57:00,
2013-02-13 08:58:00,44.9,41.6,29.56,NE,45,0.0,0.0,88,0.00,,,0.18,WUHU216HW,2013-02-13 13:58:00,
2013-02-13 08:59:00,39.7,31.4,29.76,WNW,293,0.0,0.0,72,0.00,,,0.00,WUHU216HW,2013-02-13 13:59:00,
2013-02-13 09:00:00,39.7,31.4,29.76,WNW,293,0.0,0.0,72,0.00,,,0.00,WUHU216HW,2013-02-13 14:00:00,
2013-02-13 09:01:00,39.9,31.5,29.76,WNW,293,0.0,0.0,72,0.00,,,0.00,WUHU216HW,2013-02-13 14:01:00,
2013-02-13 09:02:00,39.9,31.5,29.76,WNW,293,0.0,0.0,72,0.00,,,0.00,WUHU216HW,2013-02-13 14:02:00,
2013-02-13 09:03:00,39.7,31.7,29.76,WNW,293,0.0,0.0,73,0.00,,,0.00,WUHU216HW,2013-02-13 14:03:00,
2013-02-13 09:04:00,44.9,41.6,29.55,NE,45,0.0,0.0,88,0.00,,,0.18,WUHU216HW,2013-02-13 14:04:00,
2013-02-13 09:05:00,39.7,31.7,29.76,WNW,293,0.0,0.0,73,0.00,,,0.00,WUHU216HW,2013-02-13 14:05:00,
2013-02-13 09:06:00,39.7,31.7,29.77,WNW,293,0.0,0.0,73,0.00,,,0.00,WUHU216HW,2013-02-13 14:06:00,
2013-02-13 09:07:00,39.7,31.7,29.77,WNW,293,0.0,0.0,73,0.00,,,0.00,WUHU216HW,2013-02-13 14:07:00,
2013-02-13 09:09:00,44.9,41.6,29.54,NE,45,0.0,0.0,88,0.00,,,0.18,WUHU216HW,2013-02-13 14:09:00,
2013-02-13 09:10:00,39.7,31.7,29.77,WNW,293,0.0,0.0,73,0.00,,,0.00,WUHU216HW,2013-02-13 14:10:00,
2013-02-13 09:11:00,39.7,31.7,29.77,WNW,293,0.0,0.0,73,0.00,,,0.00,WUHU216HW,2013-02-13 14:11:00,
2013-02-13 09:12:00,39.7,31.7,29.76,WNW,293,0.0,0.0,73,0.00,,,0.00,WUHU216HW,2013-02-13 14:12:00,
2013-02-13 09:14:00,45.1,41.8,29.53,NE,45,0.0,0.0,88,0.00,,,0.18,WUHU216HW,2013-02-13 14:14:00,
2013-02-13 09:15:00,39.7,31.7,29.77,WNW,293,0.0,0.0,73,0.00,,,0.00,WUHU216HW,2013-02-13 14:15:00,
2013-02-13 09:16:00,39.7,31.7,29.76,WNW,293,0.0,0.0,73,0.00,,,0.00,WUHU216HW,2013-02-13 14:16:00,
2013-02-13 09:17:00,39.7,31.7,29.76,WNW,293,0.0,0.0,73,0.00,,,0.00,WUHU216HW,2013-02-13 14:17:00,
2013-02-13 09:18:00,39.5,31.5,29.76,WNW,293,0.0,0.0,73,0.00,,,0.00,WUHU216HW,2013-02-13 14:18:00,
2013-02-13 09:19:00,45.1,41.8,29.52,ENE,68,0.0,0.0,88,0.00,,,0.18,WUHU216HW,2013-02-13 14:19:00,
2013-02-13 09:20:00,39.5,31.5,29.76,WNW,293,0.0,0.0,73,0.00,,,0.00,WUHU216HW,2013-02-13 14:20:00,
2013-02-13 09:21:00,39.5,31.5,29.76,WNW,293,0.0,0.0,73,0.00,,,0.00,WUHU216HW,2013-02-13 14:21:00,
2013-02-13 09:22:00,39.5,31.5,29.76,WNW,293,0.0,0.0,73,0.00,,,0.00,WUHU216HW,2013-02-13 14:22:00,
2013-02-13 09:24:00,45.1,41.8,29.52,NNE,23,0.0,0.0,88,0.00,,,0.18,WUHU216HW,2013-02-13 14:24:00,
2013-02-13 09:25:00,39.5,31.5,29.76,WNW,293,0.0,0.0,73,0.00,,,0.00,WUHU216HW,2013-02-13 14:25:00,
2013-02-13 09:26:00,39.5,31.5,29.76,WNW,293,0.0,0.0,73,0.00,,,0.00,WUHU216HW,2013-02-13 14:26:00,
2013-02-13 09:27:00,39.5,31.5,29.76,WNW,293,0.0,0.0,73,0.00,,,0.00,WUHU216HW,2013-02-13 14:27:00,
2013-02-13 09:28:00,39.5,31.5,29.76,WNW,293,0.0,0.0,73,0.00,,,0.00,WUHU216HW,2013-02-13 14:28:00,
2013-02-13 09:29:00,45.3,42.0,29.52,NNE,23,0.0,0.0,88,0.00,,,0.18,WUHU216HW,2013-02-13 14:29:00,
2013-02-13 09:30:00,39.5,31.5,29.76,WNW,293,0.0,0.0,73,0.00,,,0.00,WUHU216HW,2013-02-13 14:30:00,
2013-02-13 09:31:00,39.5,31.5,29.76,WNW,293,0.0,0.0,73,0.00,,,0.00,WUHU216HW,2013-02-13 14:31:00,
2013-02-13 09:32:00,39.5,31.5,29.76,WNW,293,0.0,0.0,73,0.00,,,0.00,WUHU216HW,2013-02-13 14:32:00,
2013-02-13 09:34:00,45.3,42.0,29.52,NNE,23,0.0,0.0,88,0.00,,,0.18,WUHU216HW,2013-02-13 14:34:00,
2013-02-13 09:35:00,39.3,30.7,29.76,WNW,293,0.0,0.0,72,0.00,,,0.00,WUHU216HW,2013-02-13 14:35:00,
2013-02-13 09:36:00,39.3,30.7,29.76,WNW,293,0.0,0.0,72,0.00,,,0.00,WUHU216HW,2013-02-13 14:36:00,
2013-02-13 09:37:00,39.3,30.7,29.77,WNW,293,0.0,0.0,72,0.00,,,0.00,WUHU216HW,2013-02-13 14:37:00,
2013-02-13 09:38:00,39.3,30.7,29.77,WNW,293,0.0,0.0,72,0.00,,,0.00,WUHU216HW,2013-02-13 14:38:00,
2013-02-13 09:39:00,45.3,42.0,29.50,NE,45,0.0,0.0,88,0.00,,,0.18,WUHU216HW,2013-02-13 14:39:00,
2013-02-13 09:40:00,39.0,31.0,29.77,NW,315,0.0,0.0,73,0.00,,,0.00,WUHU216HW,2013-02-13 14:40:00,
2013-02-13 09:41:00,39.0,31.0,29.77,NW,315,0.0,0.0,74,0.00,,,0.00,WUHU216HW,2013-02-13 14:41:00,
2013-02-13 09:42:00,39.0,31.0,29.77,NW,315,0.0,0.0,74,0.00,,,0.00,WUHU216HW,2013-02-13 14:42:00,
2013-02-13 09:43:00,39.0,31.0,29.77,NW,315,0.0,0.0,74,0.00,,,0.00,WUHU216HW,2013-02-13 14:43:00,
2013-02-13 09:44:00,45.3,42.0,29.52,NE,45,0.0,0.0,88,0.00,,,0.18,WUHU216HW,2013-02-13 14:44:00,
2013-02-13 09:45:00,38.8,30.8,29.77,NW,315,0.0,0.0,73,0.00,,,0.00,WUHU216HW,2013-02-13 14:45:00,
2013-02-13 09:46:00,38.8,30.8,29.77,NW,315,0.0,0.0,73,0.00,,,0.00,WUHU216HW,2013-02-13 14:46:00,
2013-02-13 09:47:00,38.8,30.8,29.77,NW,315,0.0,0.0,73,0.00,,,0.00,WUHU216HW,2013-02-13 14:47:00,
2013-02-13 09:48:00,38.8,30.8,29.77,NW,315,0.0,0.0,72,0.00,,,0.00,WUHU216HW,2013-02-13 14:48:00,
2013-02-13 09:49:00,45.3,42.0,29.51,NE,45,0.0,0.0,88,0.00,,,0.18,WUHU216HW,2013-02-13 14:49:00,
2013-02-13 09:50:00,38.8,30.8,29.77,NW,315,0.0,0.0,72,0.00,,,0.00,WUHU216HW,2013-02-13 14:50:00,
2013-02-13 09:51:00,38.8,30.8,29.77,NW,315,0.0,0.0,71,0.00,,,0.00,WUHU216HW,2013-02-13 14:51:00,
2013-02-13 09:52:00,38.8,30.8,29.77,NW,315,0.0,0.0,71,0.00,,,0.00,WUHU216HW,2013-02-13 14:52:00,
2013-02-13 09:54:00,45.5,42.1,29.51,NE,45,0.0,0.0,88,0.00,,,0.18,WUHU216HW,2013-02-13 14:54:00,
2013-02-13 09:55:00,38.8,30.8,29.77,NW,315,0.0,0.0,70,0.00,,,0.00,WUHU216HW,2013-02-13 14:55:00,
2013-02-13 09:56:00,38.8,30.8,29.77,NE,45,0.0,0.0,71,0.00,,,0.00,WUHU216HW,2013-02-13 14:56:00,
2013-02-13 09:57:00,38.8,30.8,29.77,NE,45,0.0,0.0,71,0.00,,,0.00,WUHU216HW,2013-02-13 14:57:00,
2013-02-13 10:00:00,45.5,42.1,29.50,NE,45,0.0,0.0,88,0.00,,,0.18,WUHU216HW,2013-02-13 15:00:00,
2013-02-13 10:01:00,38.6,30.3,29.78,NE,45,0.0,0.0,72,0.00,,,0.00,WUHU216HW,2013-02-13 15:01:00,
2013-02-13 10:02:00,38.6,30.3,29.78,NE,45,0.0,0.0,71,0.00,,,0.00,WUHU216HW,2013-02-13 15:02:00,
2013-02-13 10:03:00,38.6,30.3,29.78,NE,45,0.0,0.0,71,0.00,,,0.00,WUHU216HW,2013-02-13 15:03:00,
2013-02-13 10:04:00,38.6,30.3,29.78,NE,45,0.0,0.0,71,0.00,,,0.00,WUHU216HW,2013-02-13 15:04:00,
2013-02-13 10:05:00,45.5,42.1,29.49,NNE,23,0.0,0.0,88,0.00,,,0.18,WUHU216HW,2013-02-13 15:05:00,
2013-02-13 10:06:00,38.6,30.3,29.78,NE,45,0.0,0.0,70,0.00,,,0.00,WUHU216HW,2013-02-13 15:06:00,
2013-02-13 10:08:00,38.8,29.5,29.78,NE,45,0.0,0.0,69,0.00,,,0.00,WUHU216HW,2013-02-13 15:08:00,
2013-02-13 10:09:00,38.8,29.5,29.78,WNW,293,0.0,0.0,69,0.00,,,0.00,WUHU216HW,2013-02-13 15:09:00,
2013-02-13 10:10:00,45.6,42.3,29.50,NNE,23,0.0,0.0,88,0.00,,,0.18,WUHU216HW,2013-02-13 15:10:00,
2013-02-13 10:11:00,38.8,29.5,29.78,NW,315,0.0,0.0,69,0.00,,,0.00,WUHU216HW,2013-02-13 15:11:00,
2013-02-13 10:13:00,38.8,29.5,29.78,NNW,338,0.0,0.0,69,0.00,,,0.00,WUHU216HW,2013-02-13 15:13:00,
2013-02-13 10:14:00,38.8,29.5,29.78,NNW,338,0.0,0.0,69,0.00,,,0.00,WUHU216HW,2013-02-13 15:14:00,
2013-02-13 10:15:00,45.5,42.1,29.50,NE,45,0.0,0.0,88,0.00,,,0.18,WUHU216HW,2013-02-13 15:15:00,
2013-02-13 10:16:00,38.8,29.5,29.78,NNE,23,0.0,0.0,69,0.00,,,0.00,WUHU216HW,2013-02-13 15:16:00,
2013-02-13 10:17:00,38.8,29.5,29.78,NNE,23,0.0,0.0,69,0.00,,,0.00,WUHU216HW,2013-02-13 15:17:00,
2013-02-13 10:18:00,38.8,29.5,29.78,NE,45,0.0,0.0,69,0.00,,,0.00,WUHU216HW,2013-02-13 15:18:00,
2013-02-13 10:20:00,45.5,42.1,29.49,NE,45,0.0,0.0,88,0.00,,,0.18,WUHU216HW,2013-02-13 15:20:00,
2013-02-13 10:21:00,38.8,29.5,29.78,ENE,68,0.0,0.0,69,0.00,,,0.00,WUHU216HW,2013-02-13 15:21:00,
2013-02-13 10:22:00,38.8,29.5,29.78,ENE,68,0.0,0.0,69,0.00,,,0.00,WUHU216HW,2013-02-13 15:22:00,
2013-02-13 10:23:00,38.8,29.5,29.78,ENE,68,0.0,0.0,69,0.00,,,0.00,WUHU216HW,2013-02-13 15:23:00,
2013-02-13 10:25:00,45.5,42.1,29.49,NNE,23,0.0,0.0,88,0.00,,,0.18,WUHU216HW,2013-02-13 15:25:00,
2013-02-13 10:26:00,38.8,29.5,29.78,ENE,68,0.0,0.0,69,0.00,,,0.00,WUHU216HW,2013-02-13 15:26:00,
2013-02-13 10:27:00,38.8,29.5,29.78,ENE,68,0.0,0.0,69,0.00,,,0.00,WUHU216HW,2013-02-13 15:27:00,
2013-02-13 10:28:00,38.8,29.5,29.78,ENE,68,0.0,0.0,69,0.00,,,0.00,WUHU216HW,2013-02-13 15:28:00,
2013-02-13 10:29:00,38.8,29.5,29.78,ENE,68,0.0,0.0,69,0.00,,,0.00,WUHU216HW,2013-02-13 15:29:00,
2013-02-13 10:30:00,45.6,42.3,29.50,NE,45,2.2,2.2,88,0.00,,,0.18,WUHU216HW,2013-02-13 15:30:00,
2013-02-13 10:32:00,38.8,29.5,29.78,ENE,68,0.0,0.0,69,0.00,,,0.00,WUHU216HW,2013-02-13 15:32:00,
2013-02-13 10:34:00,38.8,29.5,29.78,SW,225,0.0,0.0,69,0.00,,,0.00,WUHU216HW,2013-02-13 15:34:00,
2013-02-13 10:35:00,45.5,42.1,29.51,NE,45,0.0,2.2,88,0.00,,,0.18,WUHU216HW,2013-02-13 15:35:00,
2013-02-13 10:36:00,38.8,29.5,29.79,ENE,68,0.0,0.0,69,0.00,,,0.00,WUHU216HW,2013-02-13 15:36:00,
2013-02-13 10:37:00,39.0,29.6,29.79,NE,45,0.0,0.0,69,0.00,,,0.00,WUHU216HW,2013-02-13 15:37:00,
2013-02-13 10:38:00,39.0,29.6,29.79,NE,45,0.0,0.0,69,0.00,,,0.00,WUHU216HW,2013-02-13 15:38:00,
2013-02-13 10:40:00,45.6,42.3,29.50,NE,45,0.0,0.0,88,0.00,,,0.18,WUHU216HW,2013-02-13 15:40:00,
2013-02-13 10:41:00,39.0,29.6,29.79,ENE,68,0.0,0.0,69,0.00,,,0.00,WUHU216HW,2013-02-13 15:41:00,
2013-02-13 10:42:00,39.0,29.6,29.79,ENE,68,0.0,0.0,69,0.00,,,0.00,WUHU216HW,2013-02-13 15:42:00,
2013-02-13 10:43:00,39.0,29.6,29.79,ENE,68,0.0,0.0,69,0.00,,,0.00,WUHU216HW,2013-02-13 15:43:00,
2013-02-13 10:44:00,39.0,29.6,29.79,NE,45,0.0,0.0,69,0.00,,,0.00,WUHU216HW,2013-02-13 15:44:00,
2013-02-13 10:45:00,39.0,29.6,29.79,NE,45,0.0,0.0,69,0.00,,,0.00,WUHU216HW,2013-02-13 15:45:00,
2013-02-13 10:46:00,46.0,42.7,29.48,ENE,68,0.0,0.0,88,0.00,,,0.18,WUHU216HW,2013-02-13 15:46:00,
2013-02-13 10:47:00,39.0,29.6,29.79,East,90,0.0,0.0,69,0.00,,,0.00,WUHU216HW,2013-02-13 15:47:00,
2013-02-13 10:48:00,39.0,29.6,29.79,NE,45,0.0,0.0,69,0.00,,,0.00,WUHU216HW,2013-02-13 15:48:00,
2013-02-13 10:49:00,39.0,29.6,29.79,NE,45,0.0,0.0,69,0.00,,,0.00,WUHU216HW,2013-02-13 15:49:00,
2013-02-13 10:51:00,46.0,42.7,29.50,ENE,68,0.0,0.0,88,0.00,,,0.18,WUHU216HW,2013-02-13 15:51:00,
2013-02-13 10:52:00,39.0,29.6,29.79,SE,135,0.0,3.5,69,0.00,,,0.00,WUHU216HW,2013-02-13 15:52:00,
2013-02-13 10:54:00,39.0,29.6,29.79,WNW,293,2.6,3.5,69,0.00,,,0.00,WUHU216HW,2013-02-13 15:54:00,
2013-02-13 10:55:00,39.0,29.6,29.79,WNW,293,2.6,3.5,69,0.00,,,0.00,WUHU216HW,2013-02-13 15:55:00,
2013-02-13 10:56:00,46.0,42.7,29.51,ENE,68,0.0,0.0,88,0.00,,,0.18,WUHU216HW,2013-02-13 15:56:00,
2013-02-13 10:57:00,39.2,29.8,29.79,NE,45,0.0,3.5,69,0.00,,,0.00,WUHU216HW,2013-02-13 15:57:00,
2013-02-13 10:58:00,39.0,29.2,29.79,ENE,68,0.0,3.5,68,0.00,,,0.00,WUHU216HW,2013-02-13 15:58:00,
2013-02-13 11:00:00,39.0,29.2,29.79,ENE,68,0.0,3.5,68,0.00,,,0.00,WUHU216HW,2013-02-13 16:00:00,
2013-02-13 11:01:00,46.0,42.7,29.49,ENE,68,0.0,0.0,88,0.00,,,0.18,WUHU216HW,2013-02-13 16:01:00,
2013-02-13 11:02:00,39.2,29.8,29.79,NE,45,0.0,2.6,69,0.00,,,0.00,WUHU216HW,2013-02-13 16:02:00,
2013-02-13 11:03:00,39.0,29.6,29.79,NE,45,0.0,2.6,69,0.00,,,0.00,WUHU216HW,2013-02-13 16:03:00,
2013-02-13 11:04:00,39.0,29.6,29.79,NE,45,0.0,2.6,69,0.00,,,0.00,WUHU216HW,2013-02-13 16:04:00,
2013-02-13 11:06:00,46.0,42.7,29.48,ENE,68,0.0,0.0,88,0.00,,,0.18,WUHU216HW,2013-02-13 16:06:00,
2013-02-13 11:07:00,39.0,29.6,29.79,North,0,0.0,0.0,69,0.00,,,0.00,WUHU216HW,2013-02-13 16:07:00,
2013-02-13 11:08:00,39.0,29.6,29.79,North,0,0.0,0.0,69,0.00,,,0.00,WUHU216HW,2013-02-13 16:08:00,
2013-02-13 11:11:00,46.2,42.9,29.48,ENE,68,0.0,0.0,88,0.00,,,0.18,WUHU216HW,2013-02-13 16:11:00,
2013-02-13 11:15:00,38.8,29.5,29.79,NNE,23,2.0,2.0,69,0.00,,,0.00,WUHU216HW,2013-02-13 16:15:00,
2013-02-13 11:16:00,46.2,42.9,29.48,ENE,68,0.0,0.0,88,0.02,,,0.20,WUHU216HW,2013-02-13 16:16:00,
2013-02-13 11:17:00,38.8,29.5,29.79,NNE,23,2.0,2.0,69,0.00,,,0.00,WUHU216HW,2013-02-13 16:17:00,
2013-02-13 11:18:00,38.8,29.5,29.79,NE,45,0.0,2.0,69,0.00,,,0.00,WUHU216HW,2013-02-13 16:18:00,
2013-02-13 11:19:00,38.8,29.5,29.79,NE,45,0.0,2.0,69,0.00,,,0.00,WUHU216HW,2013-02-13 16:19:00,
2013-02-13 11:20:00,38.8,28.7,29.80,ENE,68,5.5,5.8,67,0.00,,,0.00,WUHU216HW,2013-02-13 16:20:00,
2013-02-13 11:21:00,46.2,42.9,29.48,NE,45,0.0,0.0,88,0.02,,,0.20,WUHU216HW,2013-02-13 16:21:00,
2013-02-13 11:23:00,38.6,28.9,29.80,NE,45,0.0,5.8,68,0.00,,,0.00,WUHU216HW,2013-02-13 16:23:00,
2013-02-13 11:24:00,38.6,28.9,29.79,NE,45,0.0,5.8,68,0.00,,,0.00,WUHU216HW,2013-02-13 16:24:00,
2013-02-13 11:25:00,38.6,28.9,29.79,East,90,0.0,5.8,67,0.00,,,0.00,WUHU216HW,2013-02-13 16:25:00,
2013-02-13 11:26:00,46.4,43.0,29.47,NE,45,0.0,0.0,88,0.02,,,0.20,WUHU216HW,2013-02-13 16:26:00,
2013-02-13 11:27:00,38.4,28.4,29.79,NE,45,0.0,5.8,67,0.00,,,0.00,WUHU216HW,2013-02-13 16:27:00,
2013-02-13 11:29:00,38.4,28.4,29.79,NE,45,0.0,5.8,67,0.00,,,0.00,WUHU216HW,2013-02-13 16:29:00,
2013-02-13 11:30:00,38.4,28.4,29.79,NE,45,0.0,5.5,66,0.00,,,0.00,WUHU216HW,2013-02-13 16:30:00,
2013-02-13 11:31:00,46.5,43.2,29.46,NE,45,0.0,0.0,88,0.02,,,0.20,WUHU216HW,2013-02-13 16:31:00,
2013-02-13 11:32:00,38.4,28.4,29.79,NNE,23,0.0,0.0,67,0.00,,,0.00,WUHU216HW,2013-02-13 16:32:00,
2013-02-13 11:33:00,38.4,28.4,29.79,NNE,23,0.0,0.0,67,0.00,,,0.00,WUHU216HW,2013-02-13 16:33:00,
2013-02-13 11:34:00,38.3,28.2,29.79,NE,45,0.0,0.0,67,0.00,,,0.00,WUHU216HW,2013-02-13 16:34:00,
2013-02-13 11:35:00,38.3,28.2,29.79,NE,45,0.0,0.0,67,0.00,,,0.00,WUHU216HW,2013-02-13 16:35:00,
2013-02-13 11:36:00,46.5,43.2,29.47,NE,45,0.0,0.0,88,0.02,,,0.20,WUHU216HW,2013-02-13 16:36:00,
2013-02-13 11:38:00,38.1,27.7,29.78,NE,45,0.0,0.0,67,0.00,,,0.00,WUHU216HW,2013-02-13 16:38:00,
2013-02-13 11:39:00,38.1,27.7,29.78,NE,45,0.0,0.0,67,0.00,,,0.00,WUHU216HW,2013-02-13 16:39:00,
2013-02-13 11:40:00,38.1,27.7,29.78,SSW,203,0.0,0.0,66,0.00,,,0.00,WUHU216HW,2013-02-13 16:40:00,
2013-02-13 11:41:00,46.5,43.2,29.46,NE,45,0.0,0.0,88,0.02,,,0.20,WUHU216HW,2013-02-13 16:41:00,
2013-02-13 11:42:00,38.1,27.7,29.78,SSW,203,0.0,0.0,66,0.00,,,0.00,WUHU216HW,2013-02-13 16:42:00,
2013-02-13 11:43:00,38.1,27.7,29.78,NE,45,0.0,0.0,66,0.00,,,0.00,WUHU216HW,2013-02-13 16:43:00,
2013-02-13 11:46:00,46.7,43.4,29.44,NE,45,0.0,0.0,88,0.02,,,0.20,WUHU216HW,2013-02-13 16:46:00,
2013-02-13 11:51:00,46.9,43.6,29.43,NE,45,0.0,2.0,88,0.02,,,0.20,WUHU216HW,2013-02-13 16:51:00,
2013-02-13 11:53:00,37.7,27.7,29.78,NE,45,3.1,3.1,67,0.00,,,0.00,WUHU216HW,2013-02-13 16:53:00,
2013-02-13 11:54:00,37.7,27.7,29.78,NE,45,3.1,3.1,67,0.00,,,0.00,WUHU216HW,2013-02-13 16:54:00,
2013-02-13 11:55:00,37.5,27.6,29.78,NE,45,0.0,3.1,67,0.00,,,0.00,WUHU216HW,2013-02-13 16:55:00,
2013-02-13 11:56:00,47.1,43.7,29.43,NE,45,0.0,2.0,88,0.02,,,0.20,WUHU216HW,2013-02-13 16:56:00,
2013-02-13 11:57:00,37.5,27.6,29.79,NE,45,0.0,3.1,67,0.00,,,0.00,WUHU216HW,2013-02-13 16:57:00,
2013-02-13 11:58:00,37.5,27.6,29.79,NE,45,0.0,3.1,67,0.00,,,0.00,WUHU216HW,2013-02-13 16:58:00,
2013-02-13 11:59:00,37.5,27.6,29.79,NE,45,0.0,3.1,67,0.00,,,0.00,WUHU216HW,2013-02-13 16:59:00,
2013-02-13 12:00:00,37.5,27.6,29.79,NE,45,0.0,3.1,68,0.00,,,0.00,WUHU216HW,2013-02-13 17:00:00,
2013-02-13 12:01:00,47.1,43.7,29.45,NE,45,0.0,0.0,88,0.02,,,0.20,WUHU216HW,2013-02-13 17:01:00,
2013-02-13 12:02:00,37.5,27.6,29.79,NE,45,0.0,3.1,68,0.00,,,0.00,WUHU216HW,2013-02-13 17:02:00,
2013-02-13 12:04:00,37.5,27.6,29.79,NNE,23,0.0,3.1,68,0.00,,,0.00,WUHU216HW,2013-02-13 17:04:00,
2013-02-13 12:07:00,47.1,43.7,29.44,NE,45,0.0,0.0,88,0.02,,,0.20,WUHU216HW,2013-02-13 17:07:00,
2013-02-13 12:08:00,37.4,27.8,29.80,NE,45,0.0,3.3,68,0.00,,,0.00,WUHU216HW,2013-02-13 17:08:00,
2013-02-13 12:09:00,37.4,27.8,29.80,NE,45,0.0,3.3,68,0.00,,,0.00,WUHU216HW,2013-02-13 17:09:00,
2013-02-13 12:10:00,37.4,27.8,29.80,ENE,68,0.0,3.3,68,0.00,,,0.00,WUHU216HW,2013-02-13 17:10:00,
2013-02-13 12:11:00,37.4,27.8,29.80,ENE,68,0.0,3.3,68,0.00,,,0.00,WUHU216HW,2013-02-13 17:11:00,
2013-02-13 12:12:00,47.1,43.7,29.42,NE,45,0.0,0.0,88,0.02,,,0.20,WUHU216HW,2013-02-13 17:12:00,
2013-02-13 12:13:00,37.2,27.6,29.80,NE,45,0.0,3.3,68,0.00,,,0.00,WUHU216HW,2013-02-13 17:13:00,
2013-02-13 12:14:00,37.2,27.6,29.80,NE,45,0.0,3.3,68,0.00,,,0.00,WUHU216HW,2013-02-13 17:14:00,
2013-02-13 12:17:00,47.1,43.7,29.43,ENE,68,0.0,0.0,88,0.02,,,0.20,WUHU216HW,2013-02-13 17:17:00,
2013-02-13 12:22:00,47.1,43.7,29.42,ENE,68,0.0,0.0,88,0.02,,,0.20,WUHU216HW,2013-02-13 17:22:00,
2013-02-13 12:27:00,46.9,43.6,29.42,ENE,68,0.0,0.0,88,0.02,,,0.20,WUHU216HW,2013-02-13 17:27:00,
2013-02-13 12:28:00,37.2,27.6,29.80,ENE,68,0.0,0.0,68,0.00,,,0.00,WUHU216HW,2013-02-13 17:28:00,
2013-02-13 12:29:00,37.2,27.6,29.80,ENE,68,0.0,0.0,68,0.00,,,0.00,WUHU216HW,2013-02-13 17:29:00,
2013-02-13 12:30:00,37.0,27.4,29.80,NE,45,0.0,0.0,68,0.00,,,0.00,WUHU216HW,2013-02-13 17:30:00,
2013-02-13 12:31:00,37.0,27.4,29.80,NE,45,0.0,0.0,68,0.00,,,0.00,WUHU216HW,2013-02-13 17:31:00,
2013-02-13 12:32:00,36.8,27.2,29.81,ENE,68,0.0,0.0,68,0.00,,,0.00,WUHU216HW,2013-02-13 17:32:00,
2013-02-13 12:33:00,47.1,43.7,29.41,ENE,68,0.0,0.0,88,0.02,,,0.20,WUHU216HW,2013-02-13 17:33:00,
2013-02-13 12:34:00,36.8,27.2,29.81,NE,45,0.0,0.0,68,0.00,,,0.00,WUHU216HW,2013-02-13 17:34:00,
2013-02-13 12:35:00,36.8,27.2,29.82,NE,45,0.0,0.0,68,0.00,,,0.00,WUHU216HW,2013-02-13 17:35:00,
2013-02-13 12:36:00,36.6,27.1,29.82,NE,45,0.0,0.0,68,0.00,,,0.00,WUHU216HW,2013-02-13 17:36:00,
2013-02-13 12:37:00,36.6,27.1,29.82,NE,45,0.0,0.0,68,0.00,,,0.00,WUHU216HW,2013-02-13 17:37:00,
2013-02-13 12:38:00,46.9,43.6,29.42,ENE,68,0.0,0.0,88,0.02,,,0.20,WUHU216HW,2013-02-13 17:38:00,
2013-02-13 12:39:00,36.6,27.1,29.82,NE,45,0.0,0.0,68,0.00,,,0.00,WUHU216HW,2013-02-13 17:39:00,
2013-02-13 12:40:00,36.6,27.1,29.81,NE,45,0.0,0.0,68,0.00,,,0.00,WUHU216HW,2013-02-13 17:40:00,
2013-02-13 12:41:00,36.6,27.1,29.82,ESE,113,0.0,0.0,68,0.00,,,0.00,WUHU216HW,2013-02-13 17:41:00,
2013-02-13 12:42:00,36.6,27.1,29.82,ESE,113,0.0,0.0,68,0.00,,,0.00,WUHU216HW,2013-02-13 17:42:00,
2013-02-13 12:43:00,47.1,43.7,29.41,ENE,68,0.0,0.0,88,0.02,,,0.20,WUHU216HW,2013-02-13 17:43:00,
2013-02-13 12:44:00,36.6,27.1,29.82,NE,45,0.0,0.0,68,0.00,,,0.00,WUHU216HW,2013-02-13 17:44:00,
2013-02-13 12:45:00,36.6,27.1,29.82,ENE,68,0.0,0.0,67,0.00,,,0.00,WUHU216HW,2013-02-13 17:45:00,
2013-02-13 12:46:00,36.5,26.5,29.82,West,270,0.0,0.0,67,0.00,,,0.00,WUHU216HW,2013-02-13 17:46:00,
2013-02-13 12:48:00,47.1,43.7,29.41,ENE,68,0.0,0.0,88,0.02,,,0.20,WUHU216HW,2013-02-13 17:48:00,
2013-02-13 12:49:00,36.5,26.5,29.83,West,270,0.0,0.0,67,0.00,,,0.00,WUHU216HW,2013-02-13 17:49:00,
2013-02-13 12:50:00,36.5,26.5,29.83,West,270,0.0,0.0,67,0.00,,,0.00,WUHU216HW,2013-02-13 17:50:00,
2013-02-13 12:53:00,47.1,43.7,29.40,ENE,68,0.0,0.0,88,0.02,,,0.20,WUHU216HW,2013-02-13 17:53:00,
2013-02-13 12:58:00,47.3,43.9,29.38,ENE,68,0.0,0.0,88,0.02,,,0.20,WUHU216HW,2013-02-13 17:58:00,
2013-02-13 13:03:00,47.3,43.9,29.39,ENE,68,0.0,0.0,88,0.00,,,0.20,WUHU216HW,2013-02-13 18:03:00,
2013-02-13 13:08:00,47.3,43.9,29.40,ENE,68,0.0,0.0,88,0.00,,,0.20,WUHU216HW,2013-02-13 18:08:00,
2013-02-13 13:13:00,47.3,43.9,29.38,ENE,68,0.0,0.0,88,0.00,,,0.20,WUHU216HW,2013-02-13 18:13:00,
2013-02-13 13:18:00,47.1,43.7,29.39,ESE,113,0.0,0.0,88,0.00,,,0.20,WUHU216HW,2013-02-13 18:18:00,
2013-02-13 13:23:00,46.9,43.3,29.38,SE,135,0.0,0.0,88,0.00,,,0.20,WUHU216HW,2013-02-13 18:23:00,
2013-02-13 13:28:00,46.9,43.3,29.38,SE,135,0.0,0.0,88,0.00,,,0.20,WUHU216HW,2013-02-13 18:28:00,
2013-02-13 13:33:00,46.9,43.3,29.38,SE,135,0.0,0.0,88,0.00,,,0.20,WUHU216HW,2013-02-13 18:33:00,
2013-02-13 13:35:00,35.9,26.0,29.83,NE,45,0.0,0.8,67,0.00,,,0.00,WUHU216HW,2013-02-13 18:35:00,
2013-02-13 13:36:00,35.9,26.0,29.83,NE,45,0.0,0.8,67,0.00,,,0.00,WUHU216HW,2013-02-13 18:36:00,
2013-02-13 13:37:00,35.9,26.0,29.83,NE,45,0.0,0.8,67,0.00,,,0.00,WUHU216HW,2013-02-13 18:37:00,
2013-02-13 13:38:00,35.9,26.0,29.83,NE,45,0.0,0.8,67,0.00,,,0.00,WUHU216HW,2013-02-13 18:38:00,
2013-02-13 13:39:00,47.1,43.7,29.36,SE,135,0.0,0.0,88,0.00,,,0.20,WUHU216HW,2013-02-13 18:39:00,
2013-02-13 13:40:00,35.7,25.8,29.83,NE,45,0.0,0.8,67,0.00,,,0.00,WUHU216HW,2013-02-13 18:40:00,
2013-02-13 13:41:00,35.7,25.8,29.83,NE,45,0.0,0.8,67,0.00,,,0.00,WUHU216HW,2013-02-13 18:41:00,
2013-02-13 13:42:00,35.7,25.8,29.83,WNW,293,4.0,4.0,67,0.00,,,0.00,WUHU216HW,2013-02-13 18:42:00,
2013-02-13 13:43:00,35.7,25.8,29.83,WNW,293,4.0,4.0,67,0.00,,,0.00,WUHU216HW,2013-02-13 18:43:00,
2013-02-13 13:44:00,47.3,43.9,29.35,SE,135,0.0,0.0,88,0.00,,,0.20,WUHU216HW,2013-02-13 18:44:00,
2013-02-13 13:46:00,35.7,25.8,29.83,NE,45,0.0,4.0,67,0.00,,,0.00,WUHU216HW,2013-02-13 18:46:00,
2013-02-13 13:47:00,35.6,25.7,29.83,NE,45,0.0,4.0,67,0.00,,,0.00,WUHU216HW,2013-02-13 18:47:00,
2013-02-13 13:48:00,35.6,25.7,29.84,NE,45,0.0,4.0,67,0.00,,,0.00,WUHU216HW,2013-02-13 18:48:00,
2013-02-13 13:49:00,47.3,43.9,29.37,SE,135,0.0,0.0,88,0.00,,,0.20,WUHU216HW,2013-02-13 18:49:00,
2013-02-13 13:54:00,46.9,43.6,29.35,SE,135,0.0,0.0,88,0.00,,,0.20,WUHU216HW,2013-02-13 18:54:00,
2013-02-13 13:59:00,46.9,43.6,29.37,SE,135,0.0,0.0,88,0.00,,,0.20,WUHU216HW,2013-02-13 18:59:00,
2013-02-13 14:04:00,46.9,43.6,29.37,SE,135,0.0,0.0,88,0.00,,,0.20,WUHU216HW,2013-02-13 19:04:00,
2013-02-13 14:09:00,46.9,43.6,29.36,SE,135,0.0,0.0,88,0.00,,,0.20,WUHU216HW,2013-02-13 19:09:00,
2013-02-13 14:14:00,46.9,43.6,29.35,SE,135,0.0,0.0,88,0.00,,,0.20,WUHU216HW,2013-02-13 19:14:00,
2013-02-13 14:19:00,47.1,43.7,29.35,SE,135,0.0,0.0,88,0.00,,,0.20,WUHU216HW,2013-02-13 19:19:00,
2013-02-13 14:24:00,47.1,43.7,29.34,SE,135,0.0,0.0,88,0.00,,,0.20,WUHU216HW,2013-02-13 19:24:00,
2013-02-13 14:29:00,47.3,43.9,29.35,SE,135,0.0,0.0,88,0.00,,,0.20,WUHU216HW,2013-02-13 19:29:00,
2013-02-13 14:34:00,47.4,44.1,29.35,SE,135,0.0,0.0,88,0.00,,,0.20,WUHU216HW,2013-02-13 19:34:00,
2013-02-13 14:35:00,34.8,24.9,29.85,ENE,68,0.0,0.0,67,0.00,,,0.00,WUHU216HW,2013-02-13 19:35:00,
2013-02-13 14:36:00,34.8,24.9,29.86,NNE,23,4.9,4.9,67,0.00,,,0.00,WUHU216HW,2013-02-13 19:36:00,
2013-02-13 14:37:00,34.8,24.9,29.86,NNE,23,4.9,4.9,67,0.00,,,0.00,WUHU216HW,2013-02-13 19:37:00,
2013-02-13 14:38:00,34.8,24.9,29.86,NNE,23,4.9,4.9,67,0.00,,,0.00,WUHU216HW,2013-02-13 19:38:00,
2013-02-13 14:39:00,47.4,44.1,29.35,SE,135,0.0,0.0,89,0.00,,,0.20,WUHU216HW,2013-02-13 19:39:00,
2013-02-13 14:40:00,34.8,24.9,29.86,NE,45,2.6,4.9,67,0.00,,,0.00,WUHU216HW,2013-02-13 19:40:00,
2013-02-13 14:41:00,34.8,24.9,29.86,ENE,68,0.0,4.9,67,0.00,,,0.00,WUHU216HW,2013-02-13 19:41:00,
2013-02-13 14:42:00,34.8,24.9,29.86,ENE,68,0.0,4.9,67,0.00,,,0.00,WUHU216HW,2013-02-13 19:42:00,
2013-02-13 14:43:00,34.8,24.9,29.86,NNE,23,0.0,4.9,66,0.00,,,0.00,WUHU216HW,2013-02-13 19:43:00,
2013-02-13 14:44:00,34.8,24.9,29.86,NNE,23,0.0,4.9,66,0.00,,,0.00,WUHU216HW,2013-02-13 19:44:00,
2013-02-13 14:45:00,47.4,44.1,29.35,SE,135,0.0,0.0,89,0.00,,,0.20,WUHU216HW,2013-02-13 19:45:00,
2013-02-13 14:46:00,34.7,24.4,29.86,NE,45,0.0,4.9,66,0.00,,,0.00,WUHU216HW,2013-02-13 19:46:00,
2013-02-13 14:47:00,34.8,24.6,29.86,NE,45,0.0,4.9,66,0.00,,,0.00,WUHU216HW,2013-02-13 19:47:00,
2013-02-13 14:48:00,34.8,24.6,29.86,NE,45,0.0,2.6,66,0.00,,,0.00,WUHU216HW,2013-02-13 19:48:00,
2013-02-13 14:49:00,34.8,24.6,29.86,NE,45,0.0,2.6,66,0.00,,,0.00,WUHU216HW,2013-02-13 19:49:00,
2013-02-13 14:50:00,47.3,44.2,29.36,SE,135,0.0,0.0,89,0.00,,,0.20,WUHU216HW,2013-02-13 19:50:00,
2013-02-13 14:55:00,47.1,44.1,29.36,SE,135,0.0,0.0,89,0.00,,,0.20,WUHU216HW,2013-02-13 19:55:00,
2013-02-13 15:00:00,47.3,44.2,29.36,SE,135,0.0,0.0,89,0.00,,,0.20,WUHU216HW,2013-02-13 20:00:00,
2013-02-13 15:05:00,47.1,44.1,29.36,East,90,0.0,0.0,89,0.00,,,0.20,WUHU216HW,2013-02-13 20:05:00,
2013-02-13 15:11:00,47.3,44.2,29.35,East,90,0.0,0.0,89,0.00,,,0.20,WUHU216HW,2013-02-13 20:11:00,
2013-02-13 15:16:00,47.4,44.4,29.34,East,90,0.0,0.0,89,0.00,,,0.20,WUHU216HW,2013-02-13 20:16:00,
2013-02-13 15:21:00,47.4,44.4,29.35,ESE,113,0.0,0.0,89,0.00,,,0.20,WUHU216HW,2013-02-13 20:21:00,
2013-02-13 15:26:00,47.4,44.4,29.35,ESE,113,0.0,0.0,89,0.00,,,0.20,WUHU216HW,2013-02-13 20:26:00,
2013-02-13 15:31:00,47.4,44.4,29.35,ESE,113,0.0,0.0,89,0.00,,,0.20,WUHU216HW,2013-02-13 20:31:00,
2013-02-13 15:36:00,47.4,44.4,29.36,ESE,113,0.0,0.0,89,0.00,,,0.20,WUHU216HW,2013-02-13 20:36:00,
2013-02-13 15:41:00,47.4,44.4,29.36,ESE,113,0.0,0.0,89,0.00,,,0.00,WUHU216HW,2013-02-13 20:41:00,
2013-02-13 15:46:00,47.8,44.8,29.35,ESE,113,0.0,0.0,89,0.00,,,0.00,WUHU216HW,2013-02-13 20:46:00,
2013-02-13 15:51:00,47.6,44.6,29.36,ESE,113,0.0,0.0,89,0.00,,,0.00,WUHU216HW,2013-02-13 20:51:00,
2013-02-13 15:57:00,47.6,44.6,29.37,East,90,0.0,0.0,89,0.00,,,0.00,WUHU216HW,2013-02-13 20:57:00,
2013-02-13 16:02:00,47.4,44.4,29.36,ENE,68,0.0,0.0,89,0.00,,,0.00,WUHU216HW,2013-02-13 21:02:00,
2013-02-13 16:04:00,34.5,22.8,29.87,NE,45,0.0,2.4,63,0.00,,,0.00,WUHU216HW,2013-02-13 21:04:00,
2013-02-13 16:05:00,34.5,22.8,29.87,ENE,68,0.0,2.4,62,0.00,,,0.00,WUHU216HW,2013-02-13 21:05:00,
2013-02-13 16:06:00,34.5,22.8,29.87,ENE,68,0.0,0.0,62,0.00,,,0.00,WUHU216HW,2013-02-13 21:06:00,
2013-02-13 16:07:00,47.4,44.4,29.36,North,0,0.0,0.0,89,0.00,,,0.00,WUHU216HW,2013-02-13 21:07:00,
2013-02-13 16:09:00,34.5,22.8,29.88,East,90,0.0,0.0,62,0.00,,,0.00,WUHU216HW,2013-02-13 21:09:00,
2013-02-13 16:10:00,34.5,22.8,29.88,East,90,0.0,0.0,62,0.00,,,0.00,WUHU216HW,2013-02-13 21:10:00,
2013-02-13 16:11:00,34.5,22.8,29.88,NE,45,1.3,1.3,62,0.00,,,0.00,WUHU216HW,2013-02-13 21:11:00,
2013-02-13 16:12:00,47.4,44.4,29.35,North,0,0.0,0.0,89,0.00,,,0.00,WUHU216HW,2013-02-13 21:12:00,
2013-02-13 16:13:00,34.5,22.8,29.88,NE,45,1.3,1.3,62,0.00,,,0.00,WUHU216HW,2013-02-13 21:13:00,
2013-02-13 16:14:00,34.5,22.8,29.89,ENE,68,0.0,1.3,62,0.00,,,0.00,WUHU216HW,2013-02-13 21:14:00,
2013-02-13 16:15:00,34.5,22.8,29.88,ENE,68,0.0,1.3,62,0.00,,,0.00,WUHU216HW,2013-02-13 21:15:00,
2013-02-13 16:16:00,34.7,23.0,29.89,East,90,2.2,2.2,62,0.00,,,0.00,WUHU216HW,2013-02-13 21:16:00,
2013-02-13 16:17:00,47.4,44.4,29.35,North,0,0.0,0.0,89,0.00,,,0.00,WUHU216HW,2013-02-13 21:17:00,
2013-02-13 16:18:00,34.7,22.6,29.89,ENE,68,4.0,7.6,61,0.00,,,0.00,WUHU216HW,2013-02-13 21:18:00,
2013-02-13 16:19:00,34.7,22.6,29.89,ENE,68,6.4,7.6,61,0.00,,,0.00,WUHU216HW,2013-02-13 21:19:00,
2013-02-13 16:20:00,34.7,22.6,29.89,NE,45,4.9,7.6,61,0.00,,,0.00,WUHU216HW,2013-02-13 21:20:00,
2013-02-13 16:21:00,34.7,22.6,29.89,NE,45,2.0,7.6,60,0.00,,,0.00,WUHU216HW,2013-02-13 21:21:00,
2013-02-13 16:22:00,47.4,44.4,29.36,North,0,0.0,0.0,89,0.00,,,0.00,WUHU216HW,2013-02-13 21:22:00,
2013-02-13 16:23:00,34.7,22.6,29.90,ENE,68,0.0,7.6,60,0.00,,,0.00,WUHU216HW,2013-02-13 21:23:00,
2013-02-13 16:24:00,34.7,22.6,29.90,ENE,68,0.0,7.6,60,0.00,,,0.00,WUHU216HW,2013-02-13 21:24:00,
2013-02-13 16:25:00,34.7,22.6,29.90,ENE,68,0.0,7.6,60,0.00,,,0.00,WUHU216HW,2013-02-13 21:25:00,
2013-02-13 16:26:00,34.8,22.8,29.90,ENE,68,0.0,7.6,61,0.00,,,0.00,WUHU216HW,2013-02-13 21:26:00,
2013-02-13 16:27:00,47.3,44.2,29.34,NE,45,0.0,0.0,89,0.00,,,0.00,WUHU216HW,2013-02-13 21:27:00,
2013-02-13 16:28:00,34.8,22.8,29.90,NE,45,0.0,6.4,61,0.00,,,0.00,WUHU216HW,2013-02-13 21:28:00,
2013-02-13 16:29:00,34.8,22.8,29.90,NE,45,0.0,6.4,61,0.00,,,0.00,WUHU216HW,2013-02-13 21:29:00,
2013-02-13 16:30:00,34.8,22.8,29.90,NE,45,0.0,4.9,61,0.00,,,0.00,WUHU216HW,2013-02-13 21:30:00,
2013-02-13 16:31:00,34.8,22.8,29.90,NE,45,0.0,2.0,61,0.00,,,0.00,WUHU216HW,2013-02-13 21:31:00,
2013-02-13 16:32:00,47.4,44.4,29.35,NE,45,0.0,0.0,89,0.00,,,0.00,WUHU216HW,2013-02-13 21:32:00,
2013-02-13 16:33:00,35.0,23.0,29.90,East,90,0.0,0.0,61,0.00,,,0.00,WUHU216HW,2013-02-13 21:33:00,
2013-02-13 16:34:00,35.0,23.0,29.90,ENE,68,0.0,0.0,60,0.00,,,0.00,WUHU216HW,2013-02-13 21:34:00,
2013-02-13 16:35:00,35.0,23.0,29.90,ENE,68,0.0,0.0,60,0.00,,,0.00,WUHU216HW,2013-02-13 21:35:00,
2013-02-13 16:36:00,35.2,22.8,29.90,NE,45,0.0,0.0,60,0.00,,,0.00,WUHU216HW,2013-02-13 21:36:00,
2013-02-13 16:37:00,47.4,44.4,29.36,NE,45,0.0,0.0,89,0.00,,,0.00,WUHU216HW,2013-02-13 21:37:00,
2013-02-13 16:38:00,35.2,22.8,29.91,ENE,68,0.0,0.0,60,0.00,,,0.00,WUHU216HW,2013-02-13 21:38:00,
2013-02-13 16:39:00,35.2,22.8,29.91,ENE,68,0.0,0.0,60,0.00,,,0.00,WUHU216HW,2013-02-13 21:39:00,
2013-02-13 16:40:00,35.2,22.8,29.91,ENE,68,0.0,0.0,60,0.00,,,0.00,WUHU216HW,2013-02-13 21:40:00,
2013-02-13 16:41:00,35.2,22.8,29.91,ENE,68,0.0,0.0,61,0.00,,,0.00,WUHU216HW,2013-02-13 21:41:00,
2013-02-13 16:42:00,47.4,44.4,29.36,NE,45,0.0,0.0,89,0.00,,,0.00,WUHU216HW,2013-02-13 21:42:00,
2013-02-13 16:48:00,47.4,44.4,29.36,NE,45,0.0,0.0,89,0.00,,,0.00,WUHU216HW,2013-02-13 21:48:00,
2013-02-13 16:53:00,47.4,44.4,29.36,NE,45,0.0,0.0,89,0.00,,,0.00,WUHU216HW,2013-02-13 21:53:00,
2013-02-13 16:54:00,35.6,23.1,29.92,ENE,68,0.0,5.3,60,0.00,,,0.00,WUHU216HW,2013-02-13 21:54:00,
2013-02-13 16:55:00,35.6,23.1,29.92,ENE,68,0.0,5.3,60,0.00,,,0.00,WUHU216HW,2013-02-13 21:55:00,
2013-02-13 16:56:00,35.7,23.3,29.92,NE,45,0.0,5.3,60,0.00,,,0.00,WUHU216HW,2013-02-13 21:56:00,
2013-02-13 16:57:00,35.7,23.3,29.92,NE,45,0.0,2.0,60,0.00,,,0.00,WUHU216HW,2013-02-13 21:57:00,
2013-02-13 16:58:00,47.4,44.4,29.36,NE,45,0.0,0.0,89,0.00,,,0.00,WUHU216HW,2013-02-13 21:58:00,
2013-02-13 16:59:00,35.7,23.3,29.92,NE,45,0.0,0.0,60,0.00,,,0.00,WUHU216HW,2013-02-13 21:59:00,
2013-02-13 17:00:00,35.7,23.3,29.92,NE,45,0.0,0.0,60,0.00,,,0.00,WUHU216HW,2013-02-13 22:00:00,
2013-02-13 17:01:00,35.7,23.3,29.92,NE,45,0.0,0.0,59,0.00,,,0.00,WUHU216HW,2013-02-13 22:01:00,
2013-02-13 17:02:00,35.7,23.3,29.92,NE,45,0.0,0.0,58,0.00,,,0.00,WUHU216HW,2013-02-13 22:02:00,
2013-02-13 17:03:00,47.4,44.4,29.37,SSW,203,0.0,0.0,89,0.00,,,0.00,WUHU216HW,2013-02-13 22:03:00,
2013-02-13 17:04:00,35.7,23.3,29.92,NE,45,0.0,0.0,58,0.00,,,0.00,WUHU216HW,2013-02-13 22:04:00,
2013-02-13 17:05:00,35.7,22.9,29.92,East,90,4.6,4.6,59,0.00,,,0.00,WUHU216HW,2013-02-13 22:05:00,
2013-02-13 17:06:00,35.7,22.9,29.92,East,90,4.6,4.6,59,0.00,,,0.00,WUHU216HW,2013-02-13 22:06:00,
2013-02-13 17:08:00,47.4,44.4,29.36,SW,225,0.0,0.0,89,0.00,,,0.00,WUHU216HW,2013-02-13 22:08:00,
2013-02-13 17:09:00,36.1,23.2,29.91,NE,45,0.0,4.6,59,0.00,,,0.00,WUHU216HW,2013-02-13 22:09:00,
2013-02-13 17:10:00,36.1,23.2,29.92,NE,45,0.0,4.6,59,0.00,,,0.00,WUHU216HW,2013-02-13 22:10:00,
2013-02-13 17:11:00,36.1,23.2,29.92,ENE,68,0.0,4.6,59,0.00,,,0.00,WUHU216HW,2013-02-13 22:11:00,
2013-02-13 17:12:00,36.1,23.2,29.91,ENE,68,0.0,4.6,59,0.00,,,0.00,WUHU216HW,2013-02-13 22:12:00,
2013-02-13 17:13:00,47.4,44.4,29.35,SW,225,0.0,0.0,89,0.00,,,0.00,WUHU216HW,2013-02-13 22:13:00,
2013-02-13 17:18:00,47.4,44.4,29.37,SW,225,0.0,0.0,89,0.00,,,0.00,WUHU216HW,2013-02-13 22:18:00,
2013-02-13 17:20:00,36.1,22.8,29.91,ENE,68,3.5,6.0,58,0.00,,,0.00,WUHU216HW,2013-02-13 22:20:00,
2013-02-13 17:22:00,36.1,22.8,29.91,ENE,68,3.5,6.0,58,0.00,,,0.00,WUHU216HW,2013-02-13 22:22:00,
2013-02-13 17:23:00,47.4,44.4,29.37,South,180,0.0,0.0,89,0.00,,,0.00,WUHU216HW,2013-02-13 22:23:00,
2013-02-13 17:25:00,36.1,22.8,29.91,NE,45,0.0,7.1,57,0.00,,,0.00,WUHU216HW,2013-02-13 22:25:00,
2013-02-13 17:26:00,36.1,22.8,29.92,NE,45,0.0,7.1,57,0.00,,,0.00,WUHU216HW,2013-02-13 22:26:00,
2013-02-13 17:27:00,36.1,22.8,29.92,NE,45,0.0,7.1,57,0.00,,,0.00,WUHU216HW,2013-02-13 22:27:00,
2013-02-13 17:28:00,47.4,44.4,29.37,South,180,0.0,0.0,89,0.00,,,0.00,WUHU216HW,2013-02-13 22:28:00,
2013-02-13 17:29:00,36.1,22.8,29.92,NNE,23,0.0,7.1,57,0.00,,,0.00,WUHU216HW,2013-02-13 22:29:00,
2013-02-13 17:30:00,36.3,22.5,29.92,NE,45,2.2,7.1,57,0.00,,,0.00,WUHU216HW,2013-02-13 22:30:00,
2013-02-13 17:31:00,36.3,22.5,29.92,NE,45,2.2,7.1,57,0.00,,,0.00,WUHU216HW,2013-02-13 22:31:00,
2013-02-13 17:32:00,36.5,23.1,29.91,NE,45,0.0,7.1,58,0.00,,,0.00,WUHU216HW,2013-02-13 22:32:00,
2013-02-13 17:33:00,47.4,44.4,29.36,South,180,0.0,0.0,89,0.00,,,0.00,WUHU216HW,2013-02-13 22:33:00,
2013-02-13 17:34:00,36.6,22.8,29.91,East,90,5.1,5.1,57,0.00,,,0.00,WUHU216HW,2013-02-13 22:34:00,
2013-02-13 17:35:00,36.6,22.8,29.91,ENE,68,5.8,5.8,57,0.00,,,0.00,WUHU216HW,2013-02-13 22:35:00,
2013-02-13 17:36:00,36.6,22.8,29.91,NE,45,2.0,5.8,57,0.00,,,0.00,WUHU216HW,2013-02-13 22:36:00,
2013-02-13 17:37:00,36.6,22.8,29.91,NE,45,2.0,5.8,57,0.00,,,0.00,WUHU216HW,2013-02-13 22:37:00,
2013-02-13 17:38:00,47.4,44.4,29.38,West,270,3.3,3.3,89,0.00,,,0.00,WUHU216HW,2013-02-13 22:38:00,
2013-02-13 17:39:00,36.6,22.8,29.91,ENE,68,5.5,5.8,57,0.00,,,0.00,WUHU216HW,2013-02-13 22:39:00,
2013-02-13 17:40:00,36.6,22.8,29.91,ENE,68,2.2,5.8,57,0.00,,,0.00,WUHU216HW,2013-02-13 22:40:00,
2013-02-13 17:41:00,36.6,22.8,29.91,ENE,68,2.2,5.8,57,0.00,,,0.00,WUHU216HW,2013-02-13 22:41:00,
2013-02-13 17:42:00,37.0,23.1,29.92,ENE,68,0.0,5.8,57,0.00,,,0.00,WUHU216HW,2013-02-13 22:42:00,
2013-02-13 17:43:00,47.4,44.4,29.37,West,270,0.0,3.3,89,0.00,,,0.00,WUHU216HW,2013-02-13 22:43:00,
2013-02-13 17:44:00,37.0,23.1,29.92,ENE,68,0.0,5.8,58,0.00,,,0.00,WUHU216HW,2013-02-13 22:44:00,
2013-02-13 17:45:00,37.0,23.1,29.92,ENE,68,0.0,5.8,58,0.00,,,0.00,WUHU216HW,2013-02-13 22:45:00,
2013-02-13 17:46:00,37.0,23.1,29.92,NE,45,0.0,5.8,57,0.00,,,0.00,WUHU216HW,2013-02-13 22:46:00,
2013-02-13 17:47:00,37.0,23.1,29.92,NE,45,0.0,5.8,57,0.00,,,0.00,WUHU216HW,2013-02-13 22:47:00,
2013-02-13 17:48:00,47.4,44.4,29.37,West,270,0.0,0.0,89,0.00,,,0.00,WUHU216HW,2013-02-13 22:48:00,
2013-02-13 17:49:00,37.2,23.3,29.92,East,90,0.0,5.5,57,0.00,,,0.00,WUHU216HW,2013-02-13 22:49:00,
2013-02-13 17:50:00,37.2,23.3,29.92,East,90,0.0,2.2,57,0.00,,,0.00,WUHU216HW,2013-02-13 22:50:00,
2013-02-13 17:51:00,37.2,23.3,29.92,NNE,23,2.0,5.5,57,0.00,,,0.00,WUHU216HW,2013-02-13 22:51:00,
2013-02-13 17:52:00,37.2,23.3,29.92,NNE,23,2.0,5.5,57,0.00,,,0.00,WUHU216HW,2013-02-13 22:52:00,
2013-02-13 17:53:00,47.4,44.4,29.38,West,270,0.0,0.0,89,0.00,,,0.00,WUHU216HW,2013-02-13 22:53:00,
2013-02-13 17:54:00,37.5,23.2,29.92,East,90,1.7,5.5,56,0.00,,,0.00,WUHU216HW,2013-02-13 22:54:00,
2013-02-13 17:55:00,37.5,23.6,29.92,West,270,4.6,5.5,57,0.00,,,0.00,WUHU216HW,2013-02-13 22:55:00,
2013-02-13 17:56:00,37.5,23.6,29.92,West,270,4.6,5.5,57,0.00,,,0.00,WUHU216HW,2013-02-13 22:56:00,
2013-02-13 17:57:00,37.5,23.2,29.92,NNE,23,0.0,5.5,56,0.00,,,0.00,WUHU216HW,2013-02-13 22:57:00,
2013-02-13 17:58:00,47.4,44.4,29.38,West,270,0.0,0.0,89,0.00,,,0.00,WUHU216HW,2013-02-13 22:58:00,
2013-02-13 17:59:00,37.7,23.8,29.92,South,180,0.0,5.5,57,0.00,,,0.00,WUHU216HW,2013-02-13 22:59:00,
2013-02-13 18:00:00,37.7,23.8,29.92,South,180,0.0,5.5,57,0.00,,,0.00,WUHU216HW,2013-02-13 23:00:00,
2013-02-13 18:01:00,37.7,23.8,29.92,South,180,0.0,4.6,57,0.00,,,0.00,WUHU216HW,2013-02-13 23:01:00,
2013-02-13 18:02:00,37.9,23.5,29.93,NE,45,0.0,4.6,56,0.00,,,0.00,WUHU216HW,2013-02-13 23:02:00,
2013-02-13 18:03:00,47.4,44.4,29.38,West,270,0.0,0.0,89,0.00,,,0.00,WUHU216HW,2013-02-13 23:03:00,
2013-02-13 18:04:00,37.9,23.1,29.92,NNW,338,4.4,4.6,55,0.00,,,0.00,WUHU216HW,2013-02-13 23:04:00,
2013-02-13 18:08:00,47.4,44.4,29.38,West,270,0.0,0.0,89,0.00,,,0.00,WUHU216HW,2013-02-13 23:08:00,
2013-02-13 18:13:00,47.4,44.4,29.38,West,270,0.0,0.0,89,0.00,,,0.00,WUHU216HW,2013-02-13 23:13:00,
2013-02-13 18:18:00,47.4,44.4,29.40,West,270,0.0,0.0,89,0.00,,,0.00,WUHU216HW,2013-02-13 23:18:00,
2013-02-13 18:23:00,47.4,44.4,29.40,West,270,0.0,0.0,89,0.00,,,0.00,WUHU216HW,2013-02-13 23:23:00,
2013-02-13 18:28:00,47.4,44.4,29.40,West,270,0.0,0.0,89,0.00,,,0.00,WUHU216HW,2013-02-13 23:28:00,
2013-02-13 18:33:00,47.4,44.4,29.40,West,270,0.0,0.0,89,0.00,,,0.00,WUHU216HW,2013-02-13 23:33:00,
2013-02-13 18:38:00,47.4,44.4,29.40,SSW,203,0.0,0.0,89,0.00,,,0.00,WUHU216HW,2013-02-13 23:38:00,
2013-02-13 18:44:00,47.4,44.4,29.40,West,270,0.0,0.0,89,0.00,,,0.00,WUHU216HW,2013-02-13 23:44:00,
2013-02-13 18:49:00,47.4,44.4,29.40,WSW,248,0.0,0.0,89,0.00,,,0.00,WUHU216HW,2013-02-13 23:49:00,
2013-02-13 18:54:00,47.3,44.2,29.40,West,270,0.0,0.0,89,0.00,,,0.00,WUHU216HW,2013-02-13 23:54:00,
2013-02-13 18:59:00,47.3,44.2,29.41,West,270,0.0,0.0,89,0.00,,,0.00,WUHU216HW,2013-02-13 23:59:00,
2013-02-13 19:04:00,47.1,44.1,29.41,West,270,0.0,0.0,89,0.00,,,0.00,WUHU216HW,2013-02-14 00:04:00,
2013-02-13 19:09:00,47.1,44.1,29.41,WNW,293,0.0,0.0,89,0.00,,,0.00,WUHU216HW,2013-02-14 00:09:00,
2013-02-13 19:14:00,47.1,44.1,29.41,WNW,293,0.0,0.0,89,0.00,,,0.00,WUHU216HW,2013-02-14 00:14:00,
2013-02-13 19:19:00,47.1,44.1,29.41,WNW,293,0.0,0.0,89,0.00,,,0.00,WUHU216HW,2013-02-14 00:19:00,
2013-02-13 19:25:00,47.1,44.1,29.41,NW,315,0.0,0.0,89,0.00,,,0.00,WUHU216HW,2013-02-14 00:25:00,
2013-02-13 19:30:00,47.1,44.1,29.41,WNW,293,0.0,0.0,89,0.00,,,0.00,WUHU216HW,2013-02-14 00:30:00,
2013-02-13 19:35:00,46.9,43.9,29.41,SSW,203,3.8,3.8,89,0.00,,,0.00,WUHU216HW,2013-02-14 00:35:00,
2013-02-13 19:40:00,46.9,43.9,29.41,SW,225,0.0,3.8,89,0.00,,,0.00,WUHU216HW,2013-02-14 00:40:00,
2013-02-13 19:47:00,46.9,43.9,29.41,West,270,0.0,0.0,89,0.00,,,0.00,WUHU216HW,2013-02-14 00:47:00,
2013-02-13 19:52:00,46.9,43.9,29.42,West,270,0.0,0.0,89,0.00,,,0.00,WUHU216HW,2013-02-14 00:52:00,
2013-02-13 20:03:00,46.7,43.7,29.42,WNW,293,0.0,0.0,89,0.00,,,0.00,WUHU216HW,2013-02-14 01:03:00,
2013-02-13 20:08:00,46.7,43.7,29.43,WNW,293,0.0,0.0,89,0.00,,,0.00,WUHU216HW,2013-02-14 01:08:00,
2013-02-13 20:13:00,46.7,43.7,29.42,WNW,293,0.0,0.0,89,0.00,,,0.00,WUHU216HW,2013-02-14 01:13:00,
2013-02-13 20:18:00,46.5,43.5,29.43,WNW,293,0.0,0.0,89,0.00,,,0.00,WUHU216HW,2013-02-14 01:18:00,
2013-02-13 20:23:00,46.7,43.7,29.44,WNW,293,0.0,0.0,89,0.00,,,0.00,WUHU216HW,2013-02-14 01:23:00,
2013-02-13 20:28:00,46.7,43.7,29.43,WNW,293,0.0,0.0,89,0.00,,,0.00,WUHU216HW,2013-02-14 01:28:00,
2013-02-13 20:33:00,46.7,43.7,29.44,WNW,293,0.0,0.0,89,0.00,,,0.00,WUHU216HW,2013-02-14 01:33:00,
2013-02-13 20:38:00,46.7,43.7,29.44,WNW,293,0.0,0.0,89,0.00,,,0.00,WUHU216HW,2013-02-14 01:38:00,
2013-02-13 20:43:00,46.7,43.7,29.44,WNW,293,0.0,0.0,89,0.00,,,0.00,WUHU216HW,2013-02-14 01:43:00,
2013-02-13 20:50:00,46.7,43.7,29.44,WNW,293,0.0,0.0,89,0.00,,,0.00,WUHU216HW,2013-02-14 01:50:00,
2013-02-13 20:55:00,46.7,43.7,29.44,NW,315,0.0,0.0,89,0.00,,,0.00,WUHU216HW,2013-02-14 01:55:00,
2013-02-13 21:00:00,46.5,43.5,29.45,NW,315,0.0,0.0,89,0.00,,,0.00,WUHU216HW,2013-02-14 02:00:00,
2013-02-13 21:05:00,46.5,43.5,29.45,NW,315,0.0,0.0,89,0.00,,,0.00,WUHU216HW,2013-02-14 02:05:00,
2013-02-13 21:11:00,46.5,43.5,29.46,NW,315,0.0,0.0,89,0.00,,,0.00,WUHU216HW,2013-02-14 02:11:00,
2013-02-13 21:16:00,46.5,43.5,29.46,NW,315,0.0,0.0,89,0.00,,,0.00,WUHU216HW,2013-02-14 02:16:00,
2013-02-13 21:21:00,46.5,43.5,29.46,WNW,293,0.0,1.3,89,0.00,,,0.00,WUHU216HW,2013-02-14 02:21:00,
2013-02-13 21:26:00,46.4,43.3,29.46,WNW,293,0.0,1.3,89,0.00,,,0.00,WUHU216HW,2013-02-14 02:26:00,
2013-02-13 21:31:00,46.4,43.3,29.47,WNW,293,0.0,1.3,89,0.00,,,0.00,WUHU216HW,2013-02-14 02:31:00,
2013-02-13 21:36:00,46.4,43.3,29.47,NW,315,2.2,3.5,89,0.00,,,0.00,WUHU216HW,2013-02-14 02:36:00,
2013-02-13 21:41:00,46.4,43.3,29.47,West,270,0.0,3.5,89,0.00,,,0.00,WUHU216HW,2013-02-14 02:41:00,
2013-02-13 21:46:00,46.5,43.5,29.47,West,270,0.0,5.3,89,0.00,,,0.00,WUHU216HW,2013-02-14 02:46:00,
2013-02-13 21:51:00,46.5,43.5,29.48,West,270,0.0,5.3,88,0.00,,,0.00,WUHU216HW,2013-02-14 02:51:00,
2013-02-13 21:56:00,46.4,43.0,29.47,WSW,248,0.0,1.3,88,0.00,,,0.00,WUHU216HW,2013-02-14 02:56:00,
2013-02-13 22:01:00,46.2,42.9,29.48,SE,135,0.0,3.3,88,0.00,,,0.00,WUHU216HW,2013-02-14 03:01:00,
2013-02-13 22:06:00,46.2,42.9,29.49,WNW,293,0.8,3.3,88,0.00,,,0.00,WUHU216HW,2013-02-14 03:06:00,
2013-02-13 22:11:00,46.2,42.9,29.49,West,270,2.9,2.9,88,0.00,,,0.00,WUHU216HW,2013-02-14 03:11:00,
2013-02-13 22:16:00,46.0,42.4,29.49,West,270,0.0,2.9,87,0.00,,,0.00,WUHU216HW,2013-02-14 03:16:00,
2013-02-13 22:21:00,46.0,42.4,29.49,WSW,248,0.0,3.1,87,0.00,,,0.00,WUHU216HW,2013-02-14 03:21:00,
2013-02-13 22:26:00,46.0,42.4,29.49,West,270,0.0,3.1,87,0.00,,,0.00,WUHU216HW,2013-02-14 03:26:00,
2013-02-13 22:31:00,45.8,41.9,29.49,WSW,248,0.0,3.1,86,0.00,,,0.00,WUHU216HW,2013-02-14 03:31:00,
2013-02-13 22:37:00,45.6,41.4,29.50,West,270,0.0,0.0,85,0.00,,,0.00,WUHU216HW,2013-02-14 03:37:00,
2013-02-13 22:42:00,45.6,41.4,29.51,West,270,0.0,0.0,85,0.00,,,0.00,WUHU216HW,2013-02-14 03:42:00,
2013-02-13 22:47:00,45.5,41.2,29.51,SSE,158,0.0,0.0,84,0.00,,,0.00,WUHU216HW,2013-02-14 03:47:00,
2013-02-13 22:50:00,43.5,26.1,29.85,East,90,0.0,0.0,50,0.00,,,0.00,WUHU216HW,2013-02-14 03:50:00,
2013-02-13 22:51:00,43.3,26.0,29.85,ENE,68,0.0,0.0,50,0.00,,,0.00,WUHU216HW,2013-02-14 03:51:00,
2013-02-13 22:52:00,45.3,40.7,29.51,WNW,293,0.0,0.0,83,0.00,,,0.00,WUHU216HW,2013-02-14 03:52:00,
2013-02-13 22:53:00,43.3,26.0,29.85,NE,45,0.0,0.0,50,0.00,,,0.00,WUHU216HW,2013-02-14 03:53:00,
2013-02-13 22:54:00,43.3,26.0,29.85,NE,45,0.0,0.0,50,0.00,,,0.00,WUHU216HW,2013-02-14 03:54:00,
2013-02-13 22:56:00,43.3,26.0,29.86,NE,45,0.0,0.0,50,0.00,,,0.00,WUHU216HW,2013-02-14 03:56:00,
2013-02-13 22:57:00,45.1,40.3,29.52,WSW,248,0.0,0.0,83,0.00,,,0.00,WUHU216HW,2013-02-14 03:57:00,
2013-02-13 22:58:00,43.3,26.0,29.86,ENE,68,2.6,2.6,50,0.00,,,0.00,WUHU216HW,2013-02-14 03:58:00,
2013-02-13 22:59:00,43.1,25.8,29.86,NW,315,0.0,2.6,50,0.00,,,0.00,WUHU216HW,2013-02-14 03:59:00,
2013-02-13 23:00:00,43.1,25.8,29.86,NW,315,0.0,2.6,50,0.00,,,0.00,WUHU216HW,2013-02-14 04:00:00,
2013-02-13 23:01:00,43.1,25.8,29.86,NW,315,0.0,2.6,50,0.00,,,0.00,WUHU216HW,2013-02-14 04:01:00,
2013-02-13 23:02:00,44.9,40.1,29.53,West,270,0.0,0.0,83,0.00,,,0.00,WUHU216HW,2013-02-14 04:02:00,
2013-02-13 23:03:00,42.9,26.1,29.86,West,270,0.0,2.6,51,0.00,,,0.00,WUHU216HW,2013-02-14 04:03:00,
2013-02-13 23:04:00,42.9,26.1,29.86,East,90,0.0,2.6,51,0.00,,,0.00,WUHU216HW,2013-02-14 04:04:00,
2013-02-13 23:06:00,43.1,26.2,29.86,NE,45,0.0,2.6,51,0.00,,,0.00,WUHU216HW,2013-02-14 04:06:00,
2013-02-13 23:07:00,44.7,39.6,29.53,WSW,248,0.0,0.0,82,0.00,,,0.00,WUHU216HW,2013-02-14 04:07:00,
2013-02-13 23:08:00,42.9,26.1,29.86,North,0,0.0,2.6,51,0.00,,,0.00,WUHU216HW,2013-02-14 04:08:00,
2013-02-13 23:10:00,42.9,26.1,29.86,NE,45,2.9,2.9,51,0.00,,,0.00,WUHU216HW,2013-02-14 04:10:00,
2013-02-13 23:12:00,44.7,39.6,29.53,West,270,0.0,0.0,82,0.00,,,0.00,WUHU216HW,2013-02-14 04:12:00,
2013-02-13 23:13:00,43.1,26.2,29.86,NE,45,0.0,2.9,51,0.00,,,0.00,WUHU216HW,2013-02-14 04:13:00,
2013-02-13 23:14:00,43.1,26.2,29.86,NE,45,0.0,2.9,51,0.00,,,0.00,WUHU216HW,2013-02-14 04:14:00,
2013-02-13 23:15:00,43.1,26.2,29.85,NE,45,0.0,2.9,51,0.00,,,0.00,WUHU216HW,2013-02-14 04:15:00,
2013-02-13 23:17:00,44.4,39.2,29.53,NNE,23,0.0,0.0,82,0.00,,,0.00,WUHU216HW,2013-02-14 04:17:00,
2013-02-13 23:18:00,43.1,26.2,29.86,East,90,0.0,2.9,51,0.00,,,0.00,WUHU216HW,2013-02-14 04:18:00,
2013-02-13 23:19:00,43.1,26.2,29.86,NE,45,2.4,2.9,51,0.00,,,0.00,WUHU216HW,2013-02-14 04:19:00,
2013-02-13 23:20:00,43.1,26.2,29.86,NE,45,2.4,2.9,51,0.00,,,0.00,WUHU216HW,2013-02-14 04:20:00,
2013-02-13 23:21:00,42.9,26.1,29.86,NE,45,0.0,2.9,51,0.00,,,0.00,WUHU216HW,2013-02-14 04:21:00,
2013-02-13 23:22:00,44.2,39.0,29.53,NNW,338,0.0,0.0,82,0.00,,,0.00,WUHU216HW,2013-02-14 04:22:00,
2013-02-13 23:27:00,44.0,38.6,29.53,West,270,0.0,0.0,81,0.00,,,0.00,WUHU216HW,2013-02-14 04:27:00,
2013-02-13 23:32:00,43.8,38.1,29.54,WSW,248,0.0,0.0,80,0.00,,,0.00,WUHU216HW,2013-02-14 04:32:00,
2013-02-13 23:38:00,43.7,37.9,29.53,WSW,248,0.0,0.0,80,0.00,,,0.00,WUHU216HW,2013-02-14 04:38:00,
2013-02-13 23:43:00,43.5,37.7,29.53,WSW,248,0.0,0.0,80,0.00,,,0.00,WUHU216HW,2013-02-14 04:43:00,
2013-02-13 23:48:00,43.3,37.5,29.54,WSW,248,0.0,0.0,80,0.00,,,0.00,WUHU216HW,2013-02-14 04:48:00,
2013-02-13 23:53:00,43.1,37.4,29.55,SW,225,0.0,0.0,80,0.00,,,0.00,WUHU216HW,2013-02-14 04:53:00,
2013-02-13 23:58:00,42.9,37.2,29.55,SW,225,0.0,0.0,80,0.00,,,0.00,WUHU216HW,2013-02-14 04:58:00,